                ,  0.290,  0.386,  0.483,  0.580,  0.676,  0.773,  0.869,  0.966,  1.063,  1.159,  1.256,  1.352,  1.449,  1.545,  1.642,  1.739,  1.835,  1.932,  2.028,  2.125,  2.222,  2.318,  2.415,  2.511,  2.608,  2.705,  2.801,  2.898,  2.994,  3.091,  3.188,  3.284,  3.381,  3.477,  3.574,  3.671,  3.767,  3.864,  3.960,  4.057,  4.153,  4.250,  4.347,  4.443,  4.540,  4.636,  4.733,  4.830,  4.926,  5.023,  5.119,  5.216,  5.313,  5.409,  5.506,  5.602,  5.699,  5.796
1995/01/27 00:00,  999.0,  999.0,  999.0,  999.0,  999.0,  999.0,  999.0,  999.0,  999.0,  999.0,  999.0,  999.0,  999.0,  999.0,  999.0,  999.0,  999.0,  999.0,  999.0,  999.0,  999.0,  999.0,  999.0,  999.0,  999.0,  999.0,  999.0,  999.0,  999.0,  999.0,  999.0,  999.0,  999.0,  999.0,  999.0,  999.0,  999.0,  999.0,  999.0,  999.0,  999.0,  999.0,  999.0,  999.0,  999.0,  999.0,  999.0,  999.0,  999.0,  999.0,  999.0,  999.0,  999.0,  999.0,  999.0,  999.0,  999.0,  999.0
1995/01/27 00:10,  999.0,  999.0,  999.0,  999.0,  999.0,  999.0,  999.0,  999.0,  999.0,  999.0,  999.0,  999.0,  999.0,  999.0,  999.0,  999.0,  999.0,  999.0,  999.0,  999.0,  999.0,  999.0,  999.0,  999.0,  999.0,  999.0,  999.0,  999.0,  999.0,  999.0,  999.0,  999.0,  999.0,  999.0,  999.0,  999.0,  999.0,  999.0,  999.0,  999.0,  999.0,  999.0,  999.0,  999.0,  999.0,  999.0,  999.0,  999.0,  999.0,  999.0,  999.0,  999.0,  999.0,  999.0,  999.0,  999.0,  999.0,  999.0
1995/01/27 00:20,  999.0,  999.0,  999.0,  999.0,  999.0,  999.0,  999.0,   -4.2,   -5.3,  999.0,  999.0,  999.0,  999.0,  999.0,  999.0,  999.0,  999.0,  999.0,  999.0,  999.0,  999.0,  999.0,  999.0,  999.0,  999.0,  999.0,  999.0,  999.0,  999.0,  999.0,  999.0,  999.0,  999.0,  999.0,  999.0,  999.0,  999.0,  999.0,  999.0,  999.0,  999.0,  -27.2,  999.0,  999.0,  999.0,  999.0,  999.0,  999.0,  999.0,  999.0,  999.0,  999.0,  999.0,  999.0,  999.0,  999.0,  999.0,  999.0
1995/01/27 00:30,  999.0,  999.0,  999.0,  999.0,  999.0,  999.0,  999.0,  999.0,  999.0,  999.0,  999.0,  999.0,  999.0,   19.7,  999.0,  999.0,  999.0,  999.0,  999.0,  999.0,  999.0,  999.0,  999.0,  999.0,  999.0,  999.0,  999.0,  999.0,  999.0,  999.0,  999.0,  999.0,  999.0,  999.0,  999.0,  999.0,  999.0,  999.0,  999.0,  999.0,  999.0,  999.0,  999.0,  999.0,  999.0,  999.0,  999.0,  999.0,  999.0,  999.0,  999.0,  999.0,  999.0,  999.0,  999.0,  999.0,  999.0,  999.0
1995/01/27 00:40,  -21.7,  999.0,  999.0,  999.0,  -21.4,  -12.1,  999.0,  999.0,  999.0,  999.0,  -21.2,  999.0,  999.0,  -20.5,  999.0,  999.0,  999.0,  999.0,  999.0,  -21.5,  999.0,  999.0,  999.0,  999.0,  999.0,  999.0,  999.0,  999.0,  999.0,  999.0,  999.0,  999.0,  999.0,  999.0,  999.0,  999.0,  999.0,  999.0,  999.0,  999.0,  999.0,  999.0,  999.0,  999.0,  999.0,  999.0,  999.0,  999.0,  999.0,  999.0,  999.0,  999.0,  999.0,  999.0,  999.0,  999.0,  999.0,  999.0
1995/01/27 00:50,  999.0,  -17.4,  -20.7,  999.0,  999.0,  -21.1,  999.0,  -22.0,  -21.2,  -21.4,  -21.6,  999.0,  -21.5,  -21.6,  -21.6,  999.0,  999.0,  -19.7,  -22.7,  999.0,  -25.0,  -25.0,  -24.1,  999.0,  -23.9,  -24.1,  999.0,  999.0,  999.0,  -22.9,  -22.4,  -22.9,  -22.4,  -22.1,  999.0,  999.0,  -22.1,  999.0,  999.0,  -21.3,  -21.2,  -19.9,  -19.6,  -19.9,  999.0,  999.0,  999.0,  -20.2,  999.0,  -20.1,  999.0,  999.0,  999.0,  999.0,  -21.9,  999.0,  999.0,  999.0
1995/01/27 01:00,  999.0,  999.0,  999.0,  -21.5,  -22.6,  -21.2,  999.0,  -21.6,  -21.8,  -21.0,  -20.8,  -20.5,  -21.3,  -21.4,  999.0,  -23.3,  999.0,  -24.9,  -25.4,  999.0,  999.0,  999.0,  999.0,  999.0,  999.0,  999.0,  999.0,  999.0,  999.0,  -21.4,  999.0,  -21.3,  999.0,  -21.4,  999.0,  -21.4,  999.0,  999.0,  -21.3,  999.0,  -21.6,  999.0,  999.0,  999.0,  -21.2,  999.0,  999.0,  -21.4,  999.0,  999.0,  999.0,  999.0,  999.0,  -21.8,  999.0,  999.0,  999.0,  999.0
1995/01/27 01:10,  999.0,  999.0,  -20.5,  -22.1,  -21.7,  -21.4,  -21.0,  -21.6,  -21.6,  -21.6,  -21.3,  -21.5,  -21.2,  -21.4,  -21.8,  -21.4,  -21.2,  -22.0,  -21.1,  999.0,  -21.1,  -21.5,  -21.3,  -22.1,  -22.1,  -22.1,  999.0,  -21.4,  -21.7,  -21.1,  -21.2,  -21.7,  999.0,  -21.3,  999.0,  -20.5,  -21.1,  999.0,  999.0,  -20.5,  -20.9,  -21.7,  999.0,  999.0,  -20.8,  -21.0,  999.0,  999.0,  -21.6,  -21.5,  -20.5,  999.0,  -21.2,  999.0,  999.0,  999.0,  -21.9,  999.0
1995/01/27 01:20,  999.0,  999.0,   22.2,    7.4,   19.9,  999.0,   21.4,  999.0,   12.2,   16.2,  999.0,   21.4,  999.0,   20.4,  999.0,   19.6,  999.0,   21.6,   22.7,    6.7,   23.7,  999.0,  999.0,  999.0,  999.0,  999.0,  999.0,  999.0,  999.0,  999.0,  999.0,  999.0,  999.0,  999.0,   22.1,  999.0,  999.0,  999.0,  999.0,  999.0,  999.0,   20.9,  999.0,  999.0,  999.0,  999.0,  999.0,   20.4,  999.0,  999.0,  999.0,  999.0,  999.0,  999.0,  999.0,  999.0,  999.0,  999.0
1995/01/27 01:30,  999.0,  999.0,  999.0,  999.0,  999.0,  999.0,  999.0,  999.0,  999.0,  999.0,  999.0,  999.0,  999.0,  999.0,  999.0,  999.0,  999.0,  999.0,  999.0,  999.0,  999.0,  999.0,  999.0,   21.2,   21.7,  999.0,  999.0,   20.5,  999.0,   20.9,  999.0,  999.0,  999.0,   20.8,  999.0,  999.0,  999.0,  999.0,   20.5,  999.0,  999.0,  999.0,  999.0,  999.0,   20.1,  999.0,  999.0,  999.0,   19.5,  999.0,  999.0,  999.0,  999.0,   19.8,  999.0,  999.0,   19.3,  999.0
1995/01/27 01:40,  999.0,    2.5,    2.8,  999.0,  999.0,  999.0,  999.0,  999.0,  999.0,  999.0,  999.0,  999.0,  999.0,  999.0,  999.0,  999.0,  999.0,  999.0,  999.0,  999.0,  999.0,  999.0,  999.0,  999.0,  999.0,  999.0,  999.0,  999.0,  999.0,  999.0,  999.0,  999.0,  999.0,  999.0,  999.0,  999.0,  999.0,  999.0,  999.0,  999.0,  999.0,  999.0,  999.0,  999.0,  999.0,  999.0,  999.0,  999.0,  999.0,  999.0,  999.0,  999.0,  999.0,  999.0,  999.0,  999.0,  999.0,  999.0
1995/01/27 01:50,  999.0,  999.0,  999.0,  999.0,  999.0,  999.0,  999.0,  999.0,  999.0,  999.0,  999.0,  999.0,  999.0,  999.0,  999.0,  999.0,  999.0,  999.0,  999.0,  999.0,  999.0,  999.0,  999.0,  999.0,  999.0,  999.0,  999.0,  999.0,  999.0,  999.0,  999.0,  999.0,  999.0,  999.0,  999.0,  999.0,  999.0,  999.0,  999.0,  999.0,  999.0,  999.0,  999.0,  999.0,  999.0,  999.0,  999.0,  999.0,  999.0,  999.0,  999.0,  999.0,  999.0,  999.0,  999.0,  999.0,  999.0,  999.0
1995/01/27 02:00,  999.0,  999.0,  999.0,  999.0,  999.0,  999.0,  999.0,  999.0,  999.0,  999.0,  999.0,  999.0,  999.0,  999.0,  999.0,  999.0,  999.0,  999.0,  999.0,  999.0,  999.0,  999.0,  999.0,  999.0,  999.0,  999.0,  999.0,  999.0,  999.0,  999.0,  999.0,  999.0,  999.0,  999.0,  999.0,  999.0,  999.0,  999.0,  999.0,  999.0,  999.0,  999.0,  999.0,  999.0,  999.0,  999.0,  999.0,  999.0,  999.0,  999.0,  999.0,  999.0,  999.0,  999.0,  999.0,  999.0,  999.0,  999.0
1995/01/27 02:10,  999.0,  999.0,  999.0,  999.0,  999.0,  999.0,  999.0,  999.0,  999.0,  999.0,  999.0,  999.0,  999.0,  999.0,  999.0,  999.0,  999.0,  999.0,  999.0,  999.0,  999.0,  999.0,  999.0,  999.0,  999.0,  999.0,  999.0,  999.0,  999.0,  999.0,  999.0,  999.0,  999.0,  999.0,  999.0,  999.0,   19.5,  999.0,  999.0,  999.0,  999.0,  999.0,  999.0,  999.0,  999.0,  999.0,  999.0,  999.0,  999.0,  999.0,  999.0,  999.0,  999.0,  999.0,  999.0,  999.0,  999.0,  999.0
1995/01/27 02:20,  999.0,  999.0,  999.0,  999.0,  999.0,  999.0,   13.9,   14.3,  999.0,  999.0,  999.0,  999.0,  999.0,   20.5,  999.0,  999.0,   20.9,   20.7,  999.0,  999.0,  999.0,   21.2,  999.0,   21.1,  999.0,  999.0,  999.0,  999.0,  999.0,   21.1,  999.0,  999.0,  999.0,  999.0,  999.0,  999.0,  999.0,  999.0,  999.0,  999.0,  999.0,  999.0,  999.0,  999.0,  999.0,  999.0,  999.0,  999.0,  999.0,  999.0,  999.0,  999.0,  999.0,  999.0,  999.0,  999.0,  999.0,  999.0
1995/01/27 02:30,  999.0,  999.0,  999.0,   20.8,   21.5,   21.6,   21.9,   21.2,   21.4,   21.2,   21.1,   21.0,   21.2,   21.4,   21.3,   21.1,   21.0,   21.2,   19.9,   21.3,  999.0,  999.0,   21.4,  999.0,   21.2,  999.0,   20.8,  999.0,  999.0,   21.4,  999.0,   20.9,  999.0,  999.0,  999.0,  999.0,   21.9,   21.7,  999.0,  999.0,   20.0,   22.1,   20.8,   20.5,   21.4,   21.9,  999.0,   22.4,  999.0,   21.6,   23.1,   23.1,   21.7,  999.0,   21.8,   20.6,   22.2,  999.0
1995/01/27 02:40,  999.0,   22.5,   22.7,  999.0,   20.0,  999.0,   15.4,  999.0,  999.0,   21.9,   21.1,   21.6,   21.6,  999.0,   20.7,  999.0,  999.0,  999.0,  999.0,   21.4,  999.0,  999.0,  999.0,   20.9,  999.0,   23.7,  999.0,  999.0,  999.0,  999.0,  999.0,  999.0,  999.0,  999.0,  999.0,   22.8,   22.4,   22.1,   23.2,  999.0,   22.9,  999.0,  999.0,   22.6,   22.5,   22.8,   22.5,  999.0,  999.0,   23.4,   22.6,  999.0,  999.0,  999.0,   22.6,  999.0,  999.0,  999.0
1995/01/27 02:50,  999.0,  999.0,  999.0,   21.2,   21.2,   21.8,   21.5,  999.0,   21.6,  999.0,   21.1,   20.6,   20.4,  999.0,  999.0,  999.0,  999.0,   20.8,   21.8,   20.9,   21.4,  999.0,   22.5,   21.6,  999.0,  999.0,   21.6,   21.3,   22.3,  999.0,   21.7,   22.5,  999.0,  999.0,   21.8,   22.1,  999.0,  999.0,   21.5,   21.7,  999.0,   22.1,  999.0,  999.0,  999.0,  999.0,   22.3,   22.1,  999.0,  999.0,   22.2,  999.0,  999.0,   22.3,   23.1,  999.0,  999.0,   22.2
1995/01/27 03:00,  999.0,    3.3,   -5.2,    0.5,  999.0,  999.0,  999.0,  999.0,  999.0,  999.0,  999.0,  999.0,  999.0,  999.0,  999.0,  999.0,  999.0,  999.0,  999.0,  999.0,  999.0,  999.0,  999.0,  999.0,  999.0,  999.0,  999.0,  999.0,  999.0,  999.0,  999.0,  999.0,  999.0,  999.0,  999.0,  999.0,  999.0,  999.0,  999.0,  999.0,  999.0,  999.0,  999.0,  999.0,  999.0,  999.0,  999.0,  999.0,  999.0,  999.0,  999.0,  999.0,  999.0,  999.0,  999.0,  999.0,  999.0,  999.0
1995/01/27 03:10,  999.0,  999.0,  999.0,  999.0,  999.0,  999.0,  999.0,  999.0,  999.0,  999.0,  999.0,  999.0,  999.0,  999.0,  999.0,  999.0,  999.0,  999.0,  999.0,  999.0,  999.0,  999.0,  999.0,  999.0,  999.0,  999.0,  999.0,  999.0,  999.0,  999.0,  999.0,  999.0,  999.0,  999.0,  999.0,  999.0,  999.0,  999.0,  999.0,  999.0,  999.0,  999.0,  999.0,  999.0,  999.0,  999.0,  999.0,  999.0,  999.0,  999.0,  999.0,  999.0,  999.0,  999.0,  999.0,  999.0,  999.0,  999.0
1995/01/27 03:20,  999.0,  999.0,  999.0,  999.0,  999.0,  999.0,  999.0,  999.0,  999.0,  999.0,  999.0,  999.0,  999.0,  999.0,  999.0,  999.0,  999.0,  999.0,  999.0,  999.0,  999.0,  999.0,  999.0,  999.0,  999.0,  999.0,  999.0,  999.0,  999.0,  999.0,  999.0,  999.0,  999.0,  999.0,  999.0,  999.0,  999.0,  999.0,  999.0,  999.0,  999.0,  999.0,  999.0,  999.0,  999.0,  999.0,  999.0,  999.0,  999.0,  999.0,  999.0,  999.0,  999.0,  999.0,  999.0,  999.0,  999.0,  999.0
1995/01/27 03:30,  999.0,  999.0,  999.0,  999.0,  999.0,  999.0,  999.0,  999.0,  999.0,  999.0,  999.0,  999.0,  999.0,  999.0,  999.0,  999.0,  999.0,  999.0,  999.0,  999.0,  999.0,  999.0,  999.0,  999.0,  999.0,  999.0,  999.0,  999.0,  999.0,  999.0,  999.0,  999.0,  999.0,  999.0,  999.0,  999.0,  999.0,  999.0,  999.0,  999.0,  999.0,  999.0,  999.0,  999.0,  999.0,  999.0,  999.0,  999.0,  999.0,  999.0,  999.0,  999.0,  999.0,  999.0,  999.0,  999.0,  999.0,  999.0
1995/01/27 03:40,    5.2,  999.0,  999.0,    0.7,  999.0,  999.0,  999.0,    0.2,  999.0,  999.0,  999.0,  999.0,  999.0,  999.0,  999.0,  999.0,  999.0,  999.0,  999.0,  999.0,  999.0,  999.0,  999.0,  999.0,  999.0,  999.0,  999.0,  999.0,  999.0,  999.0,   -0.3,  999.0,  999.0,  999.0,  999.0,  999.0,  999.0,  999.0,  999.0,  999.0,  999.0,  999.0,  999.0,   -1.3,  999.0,  999.0,  999.0,  999.0,  999.0,  999.0,  999.0,  999.0,  999.0,  999.0,   -1.6,  999.0,  999.0,  999.0
1995/01/27 03:50,  999.0,  999.0,    7.8,    7.3,  999.0,  999.0,  999.0,  999.0,  999.0,  999.0,  999.0,  999.0,  999.0,  999.0,  999.0,  999.0,  999.0,  999.0,  999.0,  999.0,  999.0,  999.0,  999.0,  999.0,  999.0,  999.0,  999.0,  999.0,  999.0,  999.0,  999.0,  999.0,  999.0,  999.0,  999.0,  999.0,  999.0,  999.0,  999.0,  999.0,  999.0,  999.0,  999.0,  999.0,  999.0,  999.0,  999.0,  999.0,  999.0,  999.0,  999.0,  999.0,  999.0,  999.0,  999.0,  999.0,  999.0,  999.0
1995/01/27 04:00,  999.0,    5.2,    3.4,    1.8,    4.2,   -0.3,  999.0,  999.0,  999.0,   -2.5,    1.3,  999.0,  999.0,  999.0,  999.0,  999.0,  999.0,  999.0,  999.0,  999.0,  999.0,  999.0,  999.0,  999.0,  999.0,  999.0,  999.0,  999.0,  999.0,  999.0,  999.0,  999.0,  999.0,  999.0,  999.0,  999.0,  999.0,  999.0,  999.0,  999.0,  999.0,  999.0,  999.0,  999.0,  999.0,  999.0,  999.0,  999.0,  999.0,  999.0,  999.0,  999.0,  999.0,  999.0,  999.0,  999.0,  999.0,  999.0
1995/01/27 04:10,  999.0,  999.0,   -1.7,    5.1,    3.2,    3.4,    5.1,   -0.8,  999.0,  999.0,  999.0,  999.0,  999.0,  999.0,  999.0,  999.0,  999.0,  999.0,  999.0,  999.0,  999.0,  999.0,  999.0,  999.0,  999.0,  999.0,  999.0,  999.0,  999.0,  999.0,  999.0,  999.0,  999.0,  999.0,  999.0,  999.0,  999.0,  999.0,  999.0,  999.0,  999.0,  999.0,  999.0,  999.0,  999.0,  999.0,  999.0,  999.0,  999.0,  999.0,  999.0,  999.0,  999.0,  999.0,  999.0,  999.0,  999.0,  999.0
1995/01/27 04:20,  999.0,  999.0,  999.0,    1.9,    0.9,    1.7,    2.2,  999.0,  999.0,   21.4,  999.0,  999.0,  999.0,  999.0,   10.1,  999.0,  999.0,  999.0,  999.0,  999.0,  999.0,  999.0,  999.0,  999.0,   21.0,  999.0,  999.0,  999.0,  999.0,  999.0,  999.0,  999.0,  999.0,  999.0,  999.0,  999.0,  999.0,  999.0,  999.0,  999.0,  999.0,  999.0,  999.0,  999.0,  999.0,  999.0,   20.4,  999.0,  999.0,  999.0,  999.0,  999.0,  999.0,  999.0,  999.0,  999.0,  999.0,  999.0
1995/01/27 04:30,  999.0,   -1.5,   -1.1,    3.8,   -2.5,    0.0,  999.0,   -1.5,  999.0,  999.0,  999.0,  999.0,  999.0,  999.0,  999.0,  999.0,  999.0,  999.0,  999.0,  999.0,  999.0,  999.0,  999.0,  999.0,  999.0,  999.0,  999.0,  999.0,  999.0,  999.0,  999.0,  999.0,  999.0,  999.0,  999.0,  999.0,  999.0,  999.0,  999.0,  999.0,  999.0,  999.0,  999.0,  999.0,  999.0,  999.0,  999.0,  999.0,  999.0,  999.0,  999.0,  999.0,  999.0,  999.0,  999.0,  999.0,  999.0,  999.0
1995/01/27 04:40,  999.0,  999.0,  999.0,  999.0,  999.0,   21.3,   20.4,  999.0,  999.0,  999.0,   20.7,    7.1,  999.0,  999.0,  999.0,  999.0,  999.0,  999.0,  999.0,  999.0,  999.0,  999.0,  999.0,  999.0,  999.0,  999.0,  999.0,  999.0,  999.0,  999.0,  999.0,  999.0,  999.0,   21.5,   21.1,  999.0,  999.0,  999.0,  999.0,  999.0,  999.0,  999.0,  999.0,  999.0,  999.0,  999.0,  999.0,  999.0,  999.0,  999.0,  999.0,  999.0,  999.0,  999.0,  999.0,  999.0,  999.0,  999.0
1995/01/27 04:50,  999.0,    2.6,  999.0,  999.0,   20.2,  999.0,   20.8,  999.0,   21.7,  999.0,   21.7,  999.0,   21.2,  999.0,  999.0,   20.6,  999.0,  999.0,  999.0,  999.0,  999.0,   19.1,  999.0,   16.0,  999.0,  999.0,  999.0,  999.0,  999.0,  999.0,  999.0,  999.0,   12.2,  999.0,  999.0,  999.0,   10.8,  999.0,  999.0,  999.0,  999.0,  999.0,  999.0,    8.0,  999.0,    7.1,  999.0,  999.0,  999.0,    6.2,    5.5,    5.2,  999.0,  999.0,  999.0,  999.0,  999.0,  999.0
1995/01/27 05:00,  999.0,  999.0,   21.6,  999.0,  999.0,  999.0,   20.8,  999.0,  999.0,  999.0,  999.0,  999.0,  999.0,   20.3,  999.0,  999.0,  999.0,  999.0,  999.0,  999.0,  999.0,  999.0,  999.0,  999.0,  999.0,  999.0,  999.0,  999.0,  999.0,  999.0,  999.0,  999.0,  999.0,  999.0,  999.0,  999.0,  999.0,  999.0,  999.0,  999.0,  999.0,  999.0,  999.0,  999.0,  999.0,  999.0,  999.0,  999.0,  999.0,  999.0,  999.0,  999.0,  999.0,  999.0,  999.0,  999.0,  999.0,  999.0
1995/01/27 05:10,  999.0,  999.0,  999.0,  999.0,   21.3,   21.5,   21.9,  999.0,  999.0,  999.0,   21.1,  999.0,  999.0,  999.0,  999.0,  999.0,  999.0,  999.0,  999.0,  999.0,  999.0,  999.0,  999.0,  999.0,  999.0,  999.0,  999.0,  999.0,  999.0,  999.0,  999.0,  999.0,  999.0,  999.0,  999.0,  999.0,  999.0,  999.0,  999.0,  999.0,  999.0,  999.0,  999.0,  999.0,  999.0,  999.0,  999.0,  999.0,  999.0,  999.0,  999.0,  999.0,  999.0,  999.0,  999.0,  999.0,  999.0,  999.0
1995/01/27 05:20,  999.0,  999.0,  999.0,   22.6,   21.8,  999.0,   21.8,   21.8,   21.3,   21.3,   21.2,   21.3,   20.5,  999.0,   22.3,   21.2,   19.4,   18.2,   15.7,   13.2,   11.8,  999.0,    9.0,    8.6,    4.6,    5.6,    4.2,    3.1,    2.4,    0.5,    2.2,    0.6,    0.4,    0.8,    0.0,    0.3,    0.4,    0.8,    0.5,    0.2,    1.0,    0.9,    0.9,    0.5,  999.0,    0.3,    0.8,  999.0,    0.7,    0.8,    0.7,    0.4,    1.3,    0.7,    0.4,    0.7,    0.8,    0.6
1995/01/27 05:30,  999.0,   20.5,   21.8,  999.0,   21.5,  999.0,   21.5,   21.1,  999.0,  999.0,  999.0,   22.0,  999.0,   20.8,   19.4,  999.0,  999.0,  999.0,   14.1,  999.0,   12.3,  999.0,    9.5,    8.3,  999.0,    6.4,    5.4,    4.0,    2.6,  999.0,    0.7,    0.1,  999.0,  999.0,  999.0,    0.9,  999.0,    0.5,    0.6,  999.0,  999.0,    1.0,  999.0,    1.4,  999.0,   -0.1,  999.0,  999.0,    0.5,    1.4,  999.0,  999.0,  999.0,  999.0,  999.0,  999.0,  999.0,  999.0
1995/01/27 05:40,  999.0,  999.0,  999.0,  999.0,  999.0,  999.0,  999.0,  999.0,  999.0,  999.0,  999.0,  999.0,  999.0,  999.0,  999.0,  999.0,  999.0,  999.0,  999.0,  999.0,  999.0,  999.0,  999.0,  999.0,  999.0,  999.0,  999.0,  999.0,  999.0,  999.0,  999.0,  999.0,  999.0,  999.0,  999.0,  999.0,  999.0,  999.0,  999.0,  999.0,  999.0,  999.0,  999.0,  999.0,  999.0,  999.0,  999.0,  999.0,  999.0,  999.0,  999.0,  999.0,  999.0,  999.0,  999.0,  999.0,  999.0,  999.0
1995/01/27 05:50,  999.0,  999.0,  999.0,  999.0,  999.0,  999.0,  999.0,  999.0,  999.0,  999.0,  999.0,  999.0,  999.0,  999.0,  999.0,  999.0,  999.0,  999.0,  999.0,  999.0,  999.0,  999.0,  999.0,  999.0,  999.0,  999.0,  999.0,  999.0,  999.0,  999.0,  999.0,  999.0,  999.0,  999.0,  999.0,  999.0,  999.0,  999.0,  999.0,  999.0,  999.0,  999.0,  999.0,  999.0,  999.0,  999.0,  999.0,  999.0,  999.0,  999.0,  999.0,  999.0,  999.0,  999.0,  999.0,  999.0,  999.0,  999.0
1995/01/27 06:00,  999.0,  999.0,   -1.0,  999.0,  999.0,  999.0,  999.0,  999.0,  999.0,  999.0,  999.0,  999.0,  999.0,  999.0,   -3.2,  999.0,  999.0,  999.0,  999.0,  999.0,  999.0,  999.0,  999.0,  999.0,  999.0,  999.0,  999.0,  999.0,  999.0,  999.0,  999.0,  999.0,  999.0,  999.0,  999.0,  999.0,  999.0,  999.0,  999.0,  999.0,  999.0,  999.0,  999.0,  999.0,  999.0,  999.0,  999.0,  999.0,  999.0,  999.0,  999.0,  999.0,  999.0,  999.0,  999.0,  999.0,  999.0,  999.0
1995/01/27 06:10,  999.0,    4.0,    0.4,  999.0,   -0.3,    0.7,  999.0,  999.0,  999.0,  999.0,  999.0,  999.0,  999.0,  999.0,  999.0,  999.0,  999.0,  999.0,  999.0,  999.0,  999.0,  999.0,  999.0,  999.0,  999.0,    1.5,  999.0,  999.0,  999.0,  999.0,  999.0,  999.0,  999.0,  999.0,  999.0,  999.0,  999.0,  999.0,  999.0,  999.0,  999.0,  999.0,  999.0,  999.0,  999.0,  999.0,  999.0,  999.0,  999.0,  999.0,  999.0,  999.0,  999.0,  999.0,  999.0,  999.0,  999.0,  999.0
1995/01/27 06:20,  999.0,    7.5,    8.1,    7.2,    7.3,    7.2,    5.7,    7.6,    8.2,    6.8,    5.2,    3.9,    4.1,    5.2,    4.1,    3.1,    3.5,    2.3,    4.2,    3.9,    1.1,    0.7,    2.8,  999.0,   -3.4,    3.6,    3.1,   -2.7,    3.9,    1.8,    2.3,    2.2,    3.0,    3.7,    3.8,    3.8,    5.1,    4.8,    6.6,    3.9,  999.0,  999.0,  999.0,  999.0,  999.0,  999.0,  999.0,  999.0,  999.0,  999.0,  999.0,  999.0,  999.0,  999.0,  999.0,  999.0,  999.0,  999.0
1995/01/27 06:30,  999.0,  999.0,    0.1,    0.1,    1.9,  999.0,  999.0,    2.6,    3.0,  999.0,  999.0,  999.0,  999.0,  999.0,  999.0,  999.0,  999.0,  999.0,  999.0,  999.0,  999.0,   11.9,  999.0,  999.0,  999.0,  999.0,  999.0,  999.0,  999.0,  999.0,  999.0,   -0.3,  999.0,  999.0,  999.0,  999.0,  999.0,  999.0,  999.0,  999.0,  999.0,  999.0,  999.0,  999.0,  999.0,  999.0,  999.0,  999.0,  999.0,  999.0,  999.0,  999.0,  999.0,  999.0,  999.0,  999.0,  999.0,  999.0
1995/01/27 06:40,  999.0,    3.5,  999.0,  999.0,  999.0,    2.4,    5.1,    5.3,    0.1,    0.9,  999.0,   -1.2,  999.0,    4.9,  999.0,  999.0,  999.0,  999.0,  999.0,  999.0,  999.0,  999.0,  999.0,  999.0,  999.0,  999.0,  999.0,  999.0,  999.0,  999.0,  999.0,  999.0,  999.0,  999.0,  999.0,  999.0,  999.0,  999.0,  999.0,  999.0,  999.0,  999.0,  999.0,  999.0,  999.0,  999.0,  999.0,  999.0,  999.0,  999.0,  999.0,  999.0,  999.0,  999.0,  999.0,  999.0,  999.0,  999.0
1995/01/27 06:50,  999.0,    8.5,    1.2,  999.0,    1.7,    5.4,    2.9,    2.3,    2.6,  999.0,  999.0,  999.0,   -0.5,  999.0,  999.0,  999.0,   -7.7,  999.0,  999.0,  999.0,  999.0,  999.0,  999.0,  999.0,  999.0,  999.0,  999.0,  999.0,  999.0,  999.0,  999.0,  999.0,  999.0,  999.0,  999.0,  999.0,  999.0,  999.0,  999.0,  999.0,  999.0,  999.0,  999.0,  999.0,  999.0,  999.0,  999.0,  999.0,  999.0,  999.0,  -20.2,  999.0,  999.0,  999.0,  999.0,  999.0,  999.0,  999.0
1995/01/27 07:00,  999.0,  999.0,  999.0,  999.0,   -3.3,   -1.7,   -2.9,    1.6,  999.0,  999.0,   -5.6,  999.0,  999.0,  999.0,  999.0,  999.0,  999.0,  999.0,  999.0,  999.0,  999.0,  999.0,  999.0,  999.0,  999.0,  999.0,  999.0,  999.0,  999.0,  999.0,  999.0,  999.0,  999.0,  999.0,  999.0,  999.0,  -20.3,  999.0,  999.0,  999.0,  999.0,  999.0,  999.0,  999.0,  999.0,  999.0,  999.0,  999.0,  999.0,  999.0,  999.0,  999.0,  999.0,  999.0,  999.0,  999.0,  999.0,  -25.9
1995/01/27 07:10,  999.0,  999.0,   -5.7,   -0.3,   -4.5,  999.0,   -0.5,    0.4,  999.0,  999.0,  999.0,  999.0,   -8.4,  999.0,  999.0,  999.0,  999.0,  999.0,  999.0,  999.0,  999.0,  999.0,  999.0,  999.0,  999.0,  999.0,  999.0,  999.0,  999.0,  999.0,  999.0,  999.0,  999.0,  999.0,  999.0,  999.0,  999.0,  999.0,  999.0,  999.0,  999.0,  999.0,  999.0,  999.0,  -42.0,  999.0,  999.0,  999.0,  999.0,  999.0,  -42.7,  999.0,  999.0,  999.0,  -43.0,  -42.2,  999.0,  999.0
1995/01/27 07:20,  999.0,  999.0,  999.0,  999.0,  999.0,  999.0,  999.0,  999.0,  999.0,  999.0,  999.0,  999.0,  -21.2,  -21.3,  999.0,  999.0,  -21.0,  999.0,  999.0,  -20.5,  999.0,  999.0,  999.0,  999.0,  -21.3,  999.0,  999.0,  -20.4,  -21.3,  -20.8,  999.0,  999.0,  999.0,  999.0,  999.0,  999.0,  999.0,  999.0,  999.0,  999.0,  999.0,  -21.2,  999.0,  999.0,  999.0,  999.0,  999.0,  999.0,  999.0,  999.0,  999.0,  999.0,  999.0,  999.0,  999.0,  -21.6,  999.0,  999.0
1995/01/27 07:30,  999.0,    8.3,  999.0,  999.0,    8.5,  999.0,  999.0,  999.0,  999.0,  999.0,  999.0,  999.0,  999.0,  999.0,  999.0,  999.0,  999.0,  999.0,  999.0,  999.0,  999.0,    5.8,  999.0,  999.0,  999.0,  999.0,  999.0,  999.0,  999.0,  999.0,  999.0,  999.0,  999.0,  999.0,  999.0,  999.0,  999.0,  999.0,  999.0,  999.0,  999.0,  999.0,  999.0,  999.0,  999.0,  999.0,  999.0,  999.0,  999.0,  999.0,  999.0,  999.0,  999.0,  999.0,  999.0,  999.0,  999.0,  999.0
1995/01/27 07:40,  999.0,  999.0,  999.0,  999.0,  999.0,  999.0,  999.0,  999.0,  999.0,  999.0,  999.0,  999.0,  999.0,  999.0,  999.0,  999.0,  999.0,  999.0,  999.0,  999.0,  999.0,  999.0,  999.0,  999.0,  999.0,  999.0,  999.0,  999.0,  999.0,  999.0,  999.0,  999.0,  999.0,  999.0,  999.0,  999.0,  999.0,  999.0,  999.0,  999.0,  999.0,  999.0,  999.0,  999.0,  999.0,  999.0,  999.0,  999.0,  999.0,  999.0,  999.0,  999.0,  999.0,  999.0,  999.0,  999.0,  999.0,  999.0
1995/01/27 07:50,  999.0,   20.1,  999.0,  999.0,   20.4,   20.8,   20.4,  999.0,   20.6,   21.5,   21.1,  999.0,   21.1,   20.7,  999.0,  999.0,  999.0,  999.0,  999.0,   21.5,   21.2,  999.0,   20.9,  999.0,   21.3,  999.0,  999.0,   20.4,  999.0,  999.0,   21.5,  999.0,   21.1,  999.0,   22.6,   21.0,   21.5,   21.7,  999.0,   22.0,  999.0,   21.4,  999.0,  999.0,  999.0,  999.0,  999.0,  999.0,  999.0,  999.0,  999.0,  999.0,  999.0,  999.0,  999.0,  999.0,  999.0,  999.0
1995/01/27 08:00,  999.0,   14.8,  999.0,   20.9,   21.8,   21.0,   20.4,  999.0,   21.6,  999.0,   21.1,   21.0,   21.4,   21.1,  999.0,  999.0,   21.1,   21.8,  999.0,   20.7,  999.0,  999.0,  999.0,  999.0,  999.0,  999.0,  999.0,  999.0,  999.0,  999.0,  999.0,  999.0,  999.0,  999.0,  999.0,  999.0,  999.0,  999.0,  999.0,  999.0,  999.0,  999.0,  999.0,  999.0,  999.0,  999.0,  999.0,  999.0,  999.0,  999.0,  999.0,  999.0,  999.0,  999.0,  999.0,  999.0,  999.0,  999.0
1995/01/27 08:10,  999.0,    9.6,   13.4,   10.0,   14.6,    9.9,  999.0,  999.0,  999.0,   20.8,  999.0,  999.0,  999.0,  999.0,  999.0,  999.0,  999.0,  999.0,  999.0,  999.0,  999.0,  999.0,  999.0,  999.0,  999.0,  999.0,  999.0,  999.0,  999.0,  999.0,  999.0,  999.0,  999.0,  999.0,  999.0,  999.0,  999.0,  999.0,  999.0,  999.0,  999.0,  999.0,  999.0,  999.0,  999.0,  999.0,  999.0,  999.0,  999.0,  999.0,  999.0,  999.0,  999.0,  999.0,  999.0,  999.0,  999.0,  999.0
1995/01/27 08:20,  999.0,   15.2,   21.0,   20.8,   21.4,   21.4,   20.8,   21.0,   20.6,   21.2,   21.6,  999.0,   20.9,   20.9,   23.1,  999.0,   23.0,   21.9,   27.3,   22.5,   29.5,   21.1,   26.4,   26.9,   30.9,   29.3,   32.5,   26.3,   30.4,   35.5,   39.6,   37.2,   35.0,   41.5,   39.0,  999.0,  999.0,   40.3,   40.8,   41.4,   41.6,   41.2,   41.8,   41.6,   41.9,   41.9,  999.0,   41.7,   41.5,  999.0,   41.8,   41.5,   42.1,   41.7,   41.9,   41.9,   41.5,   41.9
1995/01/27 08:30,  999.0,   13.6,    8.6,   20.9,   18.0,   21.4,   21.2,   21.2,   21.2,   20.8,   21.2,  999.0,   21.1,   20.7,   23.5,   21.4,   25.3,   26.6,   28.0,   29.8,   28.2,   32.4,   31.9,   35.0,   35.5,  999.0,   37.7,   39.0,   39.1,   39.7,   42.5,   21.7,   21.2,   42.1,  999.0,   42.0,   41.9,  999.0,   21.8,   21.6,   21.5,   28.3,   21.6,  999.0,   21.4,   21.4,  999.0,   41.7,   42.3,   42.2,   42.1,   28.5,   42.1,   41.7,   42.0,   42.1,   20.9,   41.5
1995/01/27 08:40,  999.0,   22.2,   22.5,   24.2,   22.3,   21.4,   21.5,   21.1,   21.1,   21.0,   21.7,   21.3,   21.1,   21.7,   22.2,   18.8,   20.0,   11.9,    9.6,    7.6,   30.5,   32.8,   18.6,   37.0,   36.4,   29.0,   39.3,   41.4,   21.2,  999.0,   41.4,   41.5,   41.7,   41.7,   28.4,   28.4,   42.9,   41.8,   20.9,   41.1,   41.3,   42.0,   41.4,   41.5,   27.3,   41.6,   32.5,   31.5,   26.3,   17.2,   41.9,   27.9,   34.8,   41.9,   20.6,   20.5,   41.5,   20.2
1995/01/27 08:50,  999.0,   21.7,   21.2,   21.3,   21.7,   20.3,   21.7,   21.5,   21.0,   21.1,   21.1,   20.9,   20.7,   22.4,   23.6,   25.4,   27.7,   28.5,   30.1,   30.8,   32.6,   34.5,   35.5,   35.9,   38.1,   41.0,   41.1,   42.3,  999.0,  999.0,   42.0,   41.8,   41.3,   41.7,   41.7,   41.7,   41.5,   42.3,   41.4,   41.3,   41.7,   41.6,   41.7,   41.6,   41.6,   42.2,   41.6,   42.3,   41.2,   42.1,   42.2,   41.7,   42.4,   42.0,   41.9,   42.1,   41.5,   41.9
1995/01/27 09:00,  999.0,    7.5,    8.0,    7.3,    9.3,    8.7,  999.0,   21.5,   21.3,   21.5,   21.5,   21.1,   21.1,   21.2,  999.0,   21.6,   21.1,   24.7,   25.4,   26.4,   28.1,   29.6,   31.0,   32.9,  999.0,   35.5,   36.5,  999.0,   39.2,  999.0,   41.8,  999.0,   41.3,  999.0,  999.0,  999.0,   41.6,  999.0,   41.9,  999.0,   41.8,   42.3,  999.0,   42.2,   41.7,   42.9,   41.3,   42.7,   41.7,   41.5,   41.8,   41.6,   41.5,   41.7,   41.3,  999.0,   42.1,   41.9
1995/01/27 09:10,  999.0,    3.9,    8.3,    8.2,   15.6,    8.2,   20.7,   21.7,  999.0,  999.0,   21.1,   21.2,   20.8,    0.6,  -20.8,   21.1,  999.0,   15.7,   18.0,   27.7,   28.8,   17.7,  999.0,  999.0,   27.8,   27.6,   34.9,   38.9,   39.2,   18.7,   39.2,   40.7,   41.3,   41.9,   31.3,  999.0,   41.7,   42.3,   31.1,   41.5,   20.6,   41.4,   31.3,   41.7,   -0.3,   20.5,   42.7,   20.3,   41.4,   41.9,   -0.5,   20.3,   41.0,   13.7,   41.5,   20.4,   13.6,   40.6
1995/01/27 09:20,  999.0,  999.0,  999.0,   21.3,   20.9,   21.8,   21.3,   21.7,   21.1,   21.0,  999.0,   21.0,   21.4,   20.4,   21.4,   21.4,   22.9,   24.8,   25.9,  999.0,   30.3,   30.2,   32.3,   32.9,   35.9,   36.2,   38.3,   38.1,   39.8,   41.3,   41.9,   41.6,   41.6,   41.8,   41.8,   42.0,   41.8,   42.6,   42.0,   41.6,   41.7,   42.0,   41.5,   41.6,   41.4,   41.8,   41.6,   42.0,   42.5,   41.6,   42.3,   41.7,   42.0,   41.3,   42.0,   41.8,   41.4,   41.6
1995/01/27 09:30,  999.0,  999.0,  999.0,   20.8,   20.5,   21.1,   21.3,   22.4,   21.7,   21.9,   21.7,   21.2,   20.7,   21.1,   22.5,   21.7,   23.9,   24.6,   25.7,   28.2,   29.8,   31.1,   33.3,   35.0,   36.6,   38.1,   39.2,   40.4,   41.6,   41.3,   42.3,   41.9,   41.9,   41.4,   41.4,   41.8,   41.8,   42.0,   41.8,   41.9,   42.0,   41.9,   42.0,   41.7,   42.1,   41.8,   41.8,   42.0,   41.8,   41.7,   42.1,   42.0,   41.8,   41.8,   42.0,   41.4,   41.9,   42.1
1995/01/27 09:40,  999.0,  999.0,  999.0,    6.1,   -0.2,   -3.3,   -6.7,   11.9,   -7.4,    7.3,    0.1,   13.7,   12.4,    8.7,   12.7,   13.8,   16.9,   18.5,    3.7,   12.3,    8.4,   12.5,   11.1,   21.7,   21.8,    0.0,   -4.2,   22.6,   16.3,    5.6,   17.0,   -7.3,   10.8,   -9.5,   15.5,  -10.2,   18.8,   20.3,   -1.0,   41.6,   20.5,   19.9,  999.0,   20.6,   23.2,   41.7,   20.3,   19.8,   20.5,   42.3,   42.1,   31.0,   41.9,   41.5,   31.0,   34.8,   41.4,   27.9
1995/01/27 09:50,  999.0,    5.1,   -2.1,   -1.7,   11.6,    1.6,    3.3,    2.6,    2.6,    3.0,    2.0,    3.2,    3.7,    5.2,    3.0,    4.8,    5.6,    8.8,    7.3,    7.7,    3.9,    4.0,    1.5,    1.4,    3.3,    0.5,    4.8,    7.7,    8.8,    4.7,    2.9,    4.0,   10.5,  999.0,   -0.1,  999.0,   19.9,   13.8,   41.4,   -0.9,   -0.4,   42.1,   41.6,   41.7,  999.0,   42.1,   -0.7,   42.3,   20.6,  999.0,   10.1,   20.9,   41.9,   -0.1,   20.3,   20.5,   27.3,   20.4
1995/01/27 10:00,   -0.9,  999.0,   -1.0,   -0.9,   -1.2,   -0.3,   -0.8,   -0.5,   -0.4,   -1.1,   -0.6,   -0.8,   -1.2,   -0.7,   -0.6,   -0.5,   -1.0,   -0.8,   -1.1,   -0.5,   -0.5,   -0.6,   -0.4,   -0.9,   -0.8,   -0.8,   -0.5,  999.0,   -0.3,   -0.7,   -0.6,   -0.7,   -0.7,   -0.6,   -0.7,   -0.9,   -0.5,   -1.1,   -1.0,   -1.3,   -0.1,   -0.7,   10.0,   -0.8,   20.2,    9.6,   -0.6,  999.0,  999.0,   41.9,   41.9,   41.8,   41.5,  999.0,  999.0,   42.5,   41.5,   42.0
1995/01/27 10:10,   -0.8,   -0.9,   -1.1,   -7.7,   -0.8,   -0.6,   -0.7,   -1.1,   -7.3,   -0.5,   -9.1,   -0.8,  -15.7,  -17.0,  -18.6,  -20.1,   -0.8,   -0.9,   -0.1,    0.2,  -21.2,   -0.2,  -20.9,    0.5,  -41.5,  -20.8,  -21.3,  -21.3,  -43.2,  -41.8,    0.0,  -21.5,  -21.4,  -41.4,   -1.2,  -21.4,   -0.7,  -21.8,  -21.3,   -0.6,   -0.9,   -1.0,   -0.9,  -21.0,   -1.7,  999.0,  999.0,  -41.5,   -0.2,   -0.6,   -0.9,   -0.9,   -1.3,   -0.7,   41.7,   42.3,   41.5,   42.3
1995/01/27 10:20,  999.0,   -0.7,   -1.2,   -0.9,  -22.0,   -0.4,   -0.7,   -3.2,   11.3,    5.0,   -3.7,    3.8,  -16.0,    2.1,  999.0,   -1.7,  -25.8,  -28.3,   11.2,  999.0,  -15.9,  999.0,    0.4,    0.8,  -20.4,  -41.7,  -19.7,  -20.5,    0.3,  -41.9,  -20.5,    0.5,    0.4,  -21.1,  999.0,    0.5,  -20.6,  -20.4,  999.0,  -41.5,  -41.9,  999.0,  -20.4,  -41.7,    1.4,  999.0,  -41.3,  -20.5,  -42.2,    0.3,    0.7,  -20.8,  999.0,    1.5,  -41.2,  -20.6,  -41.9,  999.0
1995/01/27 10:30,   -0.7,    3.6,    7.6,  999.0,  -10.8,   -0.6,  -10.9,  999.0,   13.5,   10.0,  999.0,    0.2,   -0.8,   -2.7,   -3.8,  -11.8,  -19.7,  -17.4,  -20.6,  -13.1,  -21.5,  -10.5,   -0.9,  -21.2,    0.7,  -10.5,   -0.9,  -10.8,  -21.7,   -0.5,   -0.4,   -4.2,  999.0,    0.1,    2.3,    4.5,   17.5,   19.7,   -0.5,   -0.7,   20.5,   -0.5,   20.7,   20.6,   20.4,   -0.5,   10.0,   10.0,   -0.8,   41.5,   40.8,    7.9,   35.1,    5.1,   -0.7,    5.4,   10.5,   -2.9
1995/01/27 10:40,   36.5,    1.5,  -21.3,  999.0,  -21.4,    1.0,    9.3,   27.5,    0.1,   20.5,   10.4,   21.5,   15.8,   22.6,  -13.6,  999.0,   11.6,    7.7,   -0.9,    1.6,   -0.4,   10.1,    9.9,    9.0,   -0.6,   -0.7,   10.4,   -0.3,   -2.2,    8.4,   -2.0,   -3.8,   -5.9,    9.8,    8.8,    7.9,   -9.7,    6.6,   41.4,  -12.8,  -10.1,   -3.6,   -0.4,   -0.7,  999.0,   -1.2,   -0.7,   -0.7,   -1.1,   -0.6,   -0.7,   -0.9,   -1.1,   -0.5,   -0.5,   -0.9,   -0.6,   -0.5
1995/01/27 10:50,  999.0,  999.0,   30.8,   27.6,  999.0,   22.1,  999.0,  999.0,   26.0,   26.8,   27.2,   25.0,   28.0,   34.1,   42.0,   41.9,   32.0,   31.3,   30.5,   29.7,  999.0,   42.2,   41.8,  999.0,   20.9,   21.0,    2.6,    1.9,    1.4,   20.5,  -40.2,   -7.7,  -14.6,  -14.4,   20.6,  -14.4,  -14.5,  -14.7,   10.0,   21.1,   -7.0,  -14.0,   -7.0,   -0.8,  -21.3,   -7.2,  -14.5,  -20.9,  -14.2,    9.9,   -0.0,   -0.2,   -7.5,  -14.2,  -10.7,  -20.9,   -0.5,   -7.1
1995/01/27 11:00,  999.0,    8.6,    5.6,    5.5,    8.7,   12.3,   13.7,   10.5,   19.5,    9.3,   17.5,   10.1,   16.3,   16.1,   16.2,   11.1,   21.2,   21.1,    9.8,   10.3,   11.4,   16.6,   15.7,   10.0,    9.9,    9.4,    8.6,    8.9,    7.7,    8.2,    7.6,   12.3,   14.5,    8.4,   13.7,   15.3,   13.2,   17.3,   21.1,   21.1,   13.7,   19.4,   30.2,   21.7,   -6.2,   -4.6,  -13.4,   -2.7,  -42.4,   21.0,  -21.2,  -31.3,  -41.7,  -20.0,   20.2,   -0.6,    0.6,  -31.5
1995/01/27 11:10,  999.0,    0.7,   -0.2,    2.2,    2.0,    2.1,    6.6,    9.4,    8.9,    9.2,    9.0,    7.1,    9.4,    5.5,    5.5,    5.2,    5.7,    4.0,    6.1,    6.8,   18.5,   25.1,   31.3,    7.6,   19.3,   34.6,   41.1,  999.0,   40.2,   41.9,   41.8,   41.8,   20.3,   42.1,   41.6,   -0.9,   41.8,  999.0,  999.0,   20.3,   20.4,   20.3,   20.7,  999.0,    9.9,   -0.4,    9.9,   -0.9,   -0.2,    0.4,   -0.8,   -0.7,   -0.8,   -0.7,   -1.0,   -0.3,   -0.7,   -0.4
1995/01/27 11:20,  999.0,  999.0,  999.0,  999.0,  999.0,   -0.7,    0.6,  999.0,  999.0,  999.0,  999.0,  999.0,  999.0,  999.0,  999.0,  999.0,  -14.1,  999.0,  -11.4,   -9.5,  999.0,  999.0,  999.0,  999.0,  999.0,  999.0,  999.0,   -0.9,  999.0,  999.0,   -0.4,   -0.9,   -1.1,   -0.7,   -0.9,   -0.6,   -0.7,   -0.6,   -0.7,   -0.8,   -1.0,   -1.1,   -0.8,   -1.1,   -1.0,   -0.9,   -0.6,   -0.7,   -0.7,   -0.8,   -0.6,   -1.0,   -0.7,   -0.6,   -0.6,   -0.7,   -1.0,   -0.7
1995/01/27 11:30,  999.0,  999.0,  999.0,   13.8,    3.7,    2.3,    7.7,   11.7,    1.6,   14.2,   16.7,   19.9,    6.5,   25.3,   23.6,    2.9,    1.4,   20.8,  -18.2,    0.9,   22.8,   -5.2,   10.7,   15.6,    9.8,    9.4,    9.9,   10.0,    8.3,   16.5,   11.1,    6.9,   12.0,    8.8,   15.8,   10.2,    8.2,    8.2,    8.6,    8.4,    5.0,    4.3,   18.6,    4.5,    9.3,    9.6,   -2.1,   -1.0,   12.5,   -0.8,    9.0,   -4.3,   19.2,    7.5,    8.9,   -0.8,   11.8,   -2.9
1995/01/27 11:40,  999.0,    7.9,    7.3,    7.3,    7.3,    7.2,    7.6,    8.1,    7.9,    8.3,    8.3,    8.5,    8.6,    8.5,    7.8,    6.5,    5.8,    5.7,    5.9,    6.1,    6.6,    6.1,    5.8,    5.2,    4.6,    4.3,    4.3,    3.4,    1.4,    3.5,    5.0,    4.4,    5.9,    7.7,    8.6,    9.1,    9.7,    9.0,    7.6,    9.8,   10.8,   11.8,   13.6,   13.8,   14.1,   11.1,   11.7,   10.6,   10.1,  999.0,  999.0,  999.0,  999.0,  999.0,  999.0,  999.0,  999.0,  999.0
1995/01/27 11:50,  999.0,    8.5,    8.9,    9.7,    9.7,    9.9,   10.1,    9.8,    9.7,    9.7,    9.7,    9.7,    9.3,    8.9,    8.2,    7.5,    7.4,    7.3,    7.8,    8.3,    7.4,    7.0,    8.1,    6.8,    6.2,    5.5,    5.5,    5.5,    5.9,    9.4,    8.2,    9.0,    9.9,    7.6,    8.2,    4.5,   -0.6,   -0.5,   -0.8,   -1.1,   -0.8,    1.5,   -0.6,   12.0,   -1.4,   -0.8,  999.0,   -1.3,   13.7,   12.0,    7.2,   -1.1,    8.9,  999.0,   -1.1,   -0.2,   -0.2,  999.0
1995/01/27 12:00,  999.0,    8.5,    9.2,    9.9,    9.6,    9.9,    9.9,    9.6,    9.5,    9.6,    9.7,   10.1,    9.9,    9.3,    8.7,    8.4,    8.9,    4.1,   10.6,    3.0,    3.7,    3.7,   12.0,    3.4,    4.0,    9.0,    4.6,    4.5,    2.0,   -5.7,   -3.9,   -9.2,  -10.6,   -8.4,   -0.6,  -24.8,  -26.8,  -14.4,  -10.6,  -11.6,  -17.7,  -18.7,  -19.9,  -13.9,  -21.5,   -0.6,   -0.7,  -14.8,  -21.9,   -0.7,  -10.5,  -21.4,   -7.7,   -0.7,  -21.5,  -21.2,   -4.4,  -21.6
1995/01/27 12:10,  999.0,    6.7,    6.6,    5.2,    7.8,    8.0,    8.0,    6.4,    6.8,    3.6,    5.3,    3.3,   15.0,    2.5,    8.8,    6.8,    8.9,   13.4,  999.0,  -26.7,  999.0,  -14.6,  -15.3,  -16.1,  -16.2,  -16.7,  999.0,   -3.3,   -6.6,   -8.7,  -11.1,  -38.8,  -28.2,  -18.7,  -31.5,  -32.8,  -33.4,  -35.1,  -31.1,  -37.3,  -42.3,  -38.2,  -41.4,  999.0,  999.0,  999.0,  999.0,  999.0,  999.0,  999.0,  999.0,    0.9,  999.0,    0.4,    0.2,    0.6,    0.4,    0.1
1995/01/27 12:20,  999.0,  -21.4,   -0.1,   15.6,  -21.1,   20.9,    9.4,   15.9,    0.0,   17.2,    3.4,   11.3,   10.6,   12.2,   -0.2,   14.2,   15.3,   33.9,  999.0,  999.0,  999.0,   -0.2,   -0.4,    6.4,   21.2,   -1.0,   -0.7,   13.7,   42.7,   42.1,   20.8,   14.6,  999.0,   42.2,   35.9,   28.5,    2.9,  -10.8,    1.9,  -15.9,   -0.6,   -3.6,   -4.9,   -5.9,    0.0,    1.2,    1.6,    0.7,  -20.7,    0.9,   25.4,  999.0,    0.5,  -13.2,  -20.4,  -13.6,  -13.5,   20.4
1995/01/27 12:30,  999.0,   21.4,  999.0,  999.0,   14.9,   13.5,   10.5,  999.0,  999.0,   21.4,   21.7,   22.1,  999.0,  999.0,   28.2,  999.0,   35.0,  999.0,  999.0,   41.3,  999.0,   -1.2,   42.1,   -0.9,  999.0,  999.0,   -1.0,   -0.7,   -0.6,   -0.6,   -0.4,   -1.3,   -0.4,   -0.4,   -0.8,   -0.7,   -0.5,   -0.0,   -0.7,   -0.6,   -0.8,   -6.4,  -14.1,  -41.9,  -17.2,  -31.5,  -32.9,  -28.1,  -36.4,  -38.4,  -38.8,  -27.3,  -27.4,  -41.5,  -41.6,  -41.5,  -41.7,  -20.5
1995/01/27 12:40,  999.0,  999.0,   -0.8,   -1.7,   -3.2,   -6.8,  999.0,   -0.5,   -6.5,  -19.9,  999.0,  999.0,  999.0,  999.0,  -12.7,  999.0,  999.0,   -6.9,   -4.9,   -3.7,   -1.7,   -0.4,   -0.9,   -0.4,   -0.5,   -0.5,   -0.8,   -0.7,   -0.5,   -0.9,   -0.9,   -0.6,   -0.8,   -1.2,   -0.7,   -1.0,   -0.8,    5.6,   11.9,   -2.9,   -7.5,  999.0,   -4.2,   -7.3,   20.3,  -24.2,  -34.1,  -25.6,  -28.0,  -30.1,  -42.1,   -9.5,  -42.1,  -32.3,  -34.5,  -27.9,  -42.1,   -1.2
1995/01/27 12:50,  999.0,  999.0,   -7.3,   -6.1,   -4.6,    0.1,   10.4,   -5.7,   -0.0,    6.2,   23.2,   24.8,   26.1,  999.0,   -6.3,  999.0,  -29.1,   -4.8,  -25.1,  -24.6,  -25.5,  999.0,  -13.6,  -11.1,  -11.0,   -5.5,   -5.4,   -0.8,   -7.1,  -21.3,   -0.4,   -4.7,  -11.9,   -4.2,   -0.5,   -0.8,   -0.4,  -41.7,  -21.3,  -14.6,  -41.9,   -0.4,   -0.6,   -0.1,  -11.4,  -10.6,  999.0,  -15.2,  -11.6,  -13.2,  -11.1,  -21.6,  -22.1,  -26.8,  -14.9,  -21.5,  -28.4,  -22.8
1995/01/27 13:00,  999.0,   14.0,   13.0,   11.6,   14.2,   20.7,  999.0,   21.1,    6.8,   10.9,  999.0,  -14.4,  -36.6,  -30.9,  -20.8,  -41.9,  -41.4,  -41.4,  -21.2,  999.0,  -36.9,  999.0,  -42.0,  -20.4,    4.3,   -1.0,  999.0,   -1.0,   -5.7,  -20.3,   -0.7,   41.7,  -17.2,  -23.6,  -21.7,   14.3,   -3.8,    7.5,  -15.4,  -10.8,  -21.0,  -16.0,   -6.2,  -10.0,   -0.8,   -0.0,  -18.2,  -15.2,   -0.6,   -5.1,    8.9,  -42.4,  -41.8,  -41.6,  -41.8,  -21.4,  999.0,  -27.3
1995/01/27 13:10,  999.0,   -5.0,    6.0,   -0.4,   -5.3,   -5.4,  999.0,  -42.1,  -41.8,  -29.5,  -36.8,  999.0,  -40.1,  -41.0,  -40.4,  -42.0,  -32.1,  999.0,  -24.2,  -21.3,  -41.8,  -41.8,   -1.0,   -2.7,  -38.4,   -1.8,  -21.2,  -21.1,  -21.4,  -21.6,   -4.1,   -0.5,   -1.2,   -2.5,   -2.0,   42.1,   20.4,   20.5,   20.3,   41.7,   42.0,  999.0,   20.9,   20.7,   41.3,   42.1,   41.9,   42.5,  999.0,   42.2,   25.3,   42.7,   41.1,   23.2,   40.7,   21.6,   21.1,   21.1
1995/01/27 13:20,  999.0,  -22.7,  -23.3,  -25.2,   -2.8,  999.0,  -21.1,  -21.5,  -20.5,   41.8,  -17.3,   13.5,   42.1,   24.2,   16.3,   41.8,   18.1,   26.5,  999.0,   -0.6,   20.5,   -0.2,   20.6,   13.4,   20.7,   27.8,    9.9,   31.2,   41.8,   31.4,   41.7,   42.0,   42.0,   41.9,   41.8,   41.7,   42.1,   41.6,   41.9,   41.8,   34.5,   20.9,   24.3,   21.0,   32.8,   38.7,   36.1,   32.8,   29.7,   35.0,   41.9,   35.4,   36.6,  999.0,   37.9,   42.1,   30.8,   41.6
1995/01/27 13:30,  999.0,    1.3,    0.6,    0.7,    4.6,   11.1,    0.7,   13.9,   21.5,   41.8,   20.9,   13.9,   -0.2,   27.0,   19.9,   20.8,   10.8,   20.5,   28.0,   30.9,   16.9,   40.0,   41.7,   33.2,   22.7,   34.8,   42.0,   35.1,   35.0,   31.3,   41.9,   36.0,   29.4,   33.4,   17.9,   31.3,   21.8,   23.1,   25.0,   20.9,   27.7,   41.6,   27.9,   32.1,   30.9,   -0.6,   34.9,   21.5,   15.8,   31.0,   33.3,   20.8,   28.1,   20.7,   21.5,   20.9,   27.9,   31.4
1995/01/27 13:40,  999.0,    4.5,    4.8,    4.6,    5.5,    6.4,   14.7,    8.8,   20.8,   21.5,   12.5,   26.7,   31.7,   31.8,   17.3,  999.0,   39.8,    1.7,   39.1,   41.5,   37.7,  999.0,   41.6,   21.1,   21.8,   21.5,  -11.1,    7.1,    0.6,   38.5,   16.1,   30.1,   42.0,    2.4,   -0.2,  -42.6,   11.0,   13.6,   -8.7,   29.9,   41.5,    9.9,    3.3,   18.8,    8.4,    5.4,   13.9,   -9.8,   26.5,   20.6,  999.0,  -35.4,   -0.7,  999.0,    1.0,  -41.2,  -15.3,    1.1
1995/01/27 13:50,   -1.8,    2.1,    2.2,    3.6,    5.4,    6.2,    7.8,   13.8,   21.0,   36.5,   41.9,   41.2,  999.0,   42.0,   42.0,   41.7,   41.9,   41.4,   41.7,   41.5,   41.6,  999.0,   41.7,   41.8,   41.9,   42.2,  999.0,   42.1,   41.9,  999.0,   41.7,   41.5,   41.7,   41.4,   41.8,  999.0,   41.7,   41.7,   42.0,   41.6,   42.1,   41.8,   41.8,   41.6,   41.9,   41.6,   42.1,   20.9,   42.3,   41.8,  999.0,   41.8,  999.0,   42.3,   42.2,   31.1,  999.0,   31.2
1995/01/27 14:00,  999.0,    4.0,    5.2,    5.5,    5.7,   14.3,   11.2,   13.9,   15.0,    8.5,    5.6,    4.0,    1.5,    0.6,    0.9,    0.8,    0.7,    0.6,    0.7,    0.8,    1.0,    0.6,    0.9,    0.7,    0.7,    1.0,    0.7,    0.7,    1.2,    0.9,    0.6,    0.5,    0.7,    0.6,    0.8,    0.6,    0.6,    1.3,    0.6,    0.5,    0.7,    0.7,   14.0,   18.5,   15.7,   15.2,   10.7,    9.6,   16.2,   20.0,   17.0,   23.6,    2.3,   14.3,   14.2,    7.9,   28.1,    8.6
1995/01/27 14:10,  -31.9,  999.0,   -0.2,    0.5,   13.4,  999.0,   11.4,   15.8,   12.1,    9.1,    5.1,    1.0,    8.1,    6.2,    1.1,    2.8,    5.6,    0.0,    6.3,    3.8,    2.9,    1.0,    0.9,    0.7,    4.6,    7.4,    5.5,    4.2,    2.3,    1.0,    3.6,    7.0,   11.1,   12.9,   17.5,   12.4,    3.0,    9.7,   10.5,   11.2,   31.3,    4.2,    0.8,    0.9,    0.5,    0.7,    0.4,    0.4,    0.5,    0.8,    0.7,    0.8,    0.7,    0.8,    0.9,    0.4,    0.8,    0.9
1995/01/27 14:20,  -41.6,  999.0,  999.0,    0.6,    0.6,    4.4,    0.9,    5.0,    3.4,    4.0,    2.8,    0.6,    0.5,    0.8,    0.8,    0.6,    0.6,    0.7,    0.5,    0.7,    0.6,    0.5,    0.2,    0.5,    0.5,    0.6,    0.7,    0.6,    0.7,    0.9,   13.6,   12.7,    7.6,    0.8,    0.9,    7.9,    3.7,    0.7,    4.9,    3.7,    0.6,   10.8,   12.3,   10.9,    1.1,   12.2,    7.8,    0.7,   15.8,    2.1,   25.2,   13.2,    8.4,   13.7,    7.6,    7.5,    6.1,    1.0
1995/01/27 14:30,  -25.8,  999.0,    3.9,   -4.9,    2.6,    7.6,   -2.6,    2.1,    1.6,    4.2,    3.2,    1.3,    0.7,    0.9,    1.2,    2.4,    0.7,    0.9,   17.6,   17.2,   28.7,   22.0,   26.4,   21.0,   24.3,   27.4,   21.0,   16.5,   26.7,   20.6,   21.5,   19.9,   17.9,   26.1,   23.9,   22.4,   26.2,   36.1,   35.7,   30.5,    0.1,    5.4,    5.3,   24.4,   -0.2,   -7.2,   -9.4,  -13.7,   -6.7,   -6.9,    0.2,  -10.3,    0.7,   -6.9,    0.0,  -14.1,   -0.4,    0.3
1995/01/27 14:40,  999.0,  999.0,  -20.9,  -10.2,  -10.1,    0.4,  -10.2,   -9.9,  -10.0,    1.0,  -20.7,  999.0,  -10.4,  999.0,  -21.6,   -4.6,    1.3,    9.8,   12.9,   14.6,   16.8,   18.9,   21.2,    2.3,   21.3,   20.4,   -2.0,    0.5,    0.6,    1.3,  999.0,   -4.1,    0.6,   -0.8,   -1.5,    0.7,    2.9,    0.7,  999.0,  999.0,  999.0,  999.0,  -11.2,   -8.0,   -3.6,  999.0,   -0.5,   -1.0,   -1.1,  999.0,   -0.5,   -0.5,   -0.7,   -0.8,   -1.1,   -0.3,   -0.9,   -0.4
1995/01/27 14:50,  -41.8,  999.0,   14.0,   10.2,   -4.1,    0.0,    1.7,   21.7,   13.0,   21.8,  -20.8,   12.6,  -18.9,   -4.3,  -12.4,   -9.6,   -6.5,   -2.8,   -0.9,   -2.3,   -1.4,   -1.9,   -0.3,   -0.6,   -0.6,   -0.7,   -0.7,   -0.4,   -0.9,   -1.0,   -1.0,   -1.0,   -1.0,   -0.9,   -0.9,   -0.7,   -0.6,   -0.7,   -0.8,   -0.9,   -0.6,   -0.5,   -0.8,   -1.1,   -1.0,   -1.3,   -1.0,   -0.8,   -0.8,   -0.8,   -0.9,   -0.8,   -0.8,   -0.5,   -0.5,   -0.8,   -0.8,   -0.4
1995/01/27 15:00,  -42.0,  999.0,  999.0,   19.3,  999.0,   13.7,    7.0,   10.3,  999.0,   22.5,   -1.9,    5.4,  -12.0,   -9.8,  999.0,   14.4,   -2.4,   -0.4,   -3.9,   -0.4,   -1.6,    6.2,    6.2,   13.6,    9.7,   20.6,   -0.5,   -0.7,    6.5,   -0.4,   -0.7,   13.4,   13.5,   -0.7,   -0.6,   -1.0,    9.8,    9.9,   -0.8,   -0.5,    9.8,   13.3,   30.9,   -0.7,    6.5,   13.5,    6.5,   -0.6,   20.7,    9.9,   21.0,   13.5,    6.3,   30.9,   20.7,    9.4,   10.0,   27.6
1995/01/27 15:10,   39.1,  999.0,   33.8,   -0.1,    2.6,   10.4,   13.4,   22.6,   23.7,   24.2,   20.6,   10.8,  999.0,   21.2,   23.2,    6.3,    3.7,   11.9,   24.8,   20.5,   14.7,   18.2,   20.7,   13.6,    6.7,   15.6,   20.6,   25.9,   13.7,   -0.2,   -0.4,   -0.5,   20.4,   -0.7,   -0.6,   -0.7,    9.8,   10.0,   -0.8,   13.6,   -1.1,   10.0,   -0.6,   10.4,   -3.3,   -5.2,   -0.7,    8.1,    4.3,   15.3,    5.9,   -5.2,   11.6,   15.3,   19.9,   10.0,   -0.6,   30.4
1995/01/27 15:20,    2.5,    2.1,    3.8,    2.1,    3.6,    2.9,    2.7,    4.5,    5.6,    6.0,   10.7,   20.5,   31.5,   38.7,   39.5,   41.8,   41.7,   42.0,   41.8,   41.9,   42.1,   41.8,   42.0,   42.0,   42.3,   42.4,   42.2,   42.2,   41.8,   41.6,   42.3,   41.8,   41.4,   41.6,   20.4,   20.2,   41.9,   27.3,   20.3,   41.9,   42.0,   27.7,   21.1,   20.6,   42.0,   20.8,   20.6,   20.7,   -0.6,   13.6,   41.8,   20.7,    9.9,    6.3,   20.2,   -0.4,   -0.7,   10.3
1995/01/27 15:30,   32.1,   12.4,   10.8,    7.9,    1.7,    5.6,   11.9,   11.8,   21.8,   23.6,   25.5,   27.7,   29.8,   36.6,   39.4,   40.6,   40.2,   41.5,   42.0,   41.7,   42.1,   41.8,   41.6,   42.0,   41.5,   41.7,   41.7,   41.8,  999.0,   20.6,   20.3,   20.5,   20.5,   41.5,   -0.7,   20.4,  999.0,   -0.7,   -0.3,  999.0,   41.7,  999.0,   20.6,   41.8,   -1.0,   41.5,   41.4,    6.2,   -0.8,    6.3,   20.5,   -0.6,   -0.8,   -1.0,   -0.7,   -0.5,   -1.3,   -0.7
1995/01/27 15:40,   27.1,   12.0,   -2.9,   -1.6,    6.9,   16.4,   16.6,   19.7,   31.1,   20.9,   30.8,    9.9,    6.2,   20.5,   41.8,   13.5,   42.0,   31.4,   31.3,   20.8,   20.8,   41.9,   20.5,   31.1,   42.0,   20.8,    9.9,   42.1,   -0.5,   10.4,   31.1,   13.7,   20.5,   13.6,   20.4,   13.5,    7.1,  999.0,   20.5,   42.1,   41.3,   20.7,    6.1,   41.6,   20.6,   42.0,   17.5,   10.4,   10.5,   10.3,   12.8,   42.0,   16.9,   23.0,   41.6,   13.8,    6.7,    6.2
1995/01/27 15:50,   23.6,   21.4,   21.7,   21.2,   25.6,   27.2,   35.4,   35.7,   38.7,  999.0,   38.1,   31.4,   31.5,   34.9,   27.1,   35.4,   25.7,   25.6,   35.3,   36.7,   22.6,   26.9,   23.1,   31.9,   31.9,   35.0,   27.7,   14.9,   33.5,   22.4,   24.4,   17.7,   27.6,   35.8,   40.5,   21.2,   25.7,   21.5,   21.2,   29.4,   32.8,   26.6,   25.8,   24.1,   19.8,   31.5,   14.0,   21.6,   16.0,   28.7,   12.7,    8.6,   26.7,   24.9,    1.6,   20.6,   27.7,   20.8
1995/01/27 16:00,  999.0,  999.0,   21.2,  999.0,   11.0,   -0.5,   10.6,   12.1,    4.6,   19.7,   -1.3,    8.1,  -13.0,   -3.9,    1.8,    0.5,    2.9,   -6.3,    0.5,  -13.3,   -6.4,   -6.3,  -17.2,    8.4,   14.2,   -3.5,   -6.5,   14.4,   -8.4,  -13.9,  -13.8,   -6.3,  -13.7,  -13.8,  -13.6,  -20.9,  -10.0,   -6.6,   -7.1,   -1.3,    0.4,    0.3,  -21.1,  -22.0,    4.5,    6.3,    4.6,    0.3,    1.1,    8.5,   11.4,   20.3,   14.0,  -20.7,   28.1,   20.8,   21.0,   -1.6
1995/01/27 16:10,  999.0,   20.6,   20.4,    7.0,   16.9,   15.2,   18.5,    7.5,    5.5,    7.0,    4.4,    2.5,    1.4,    0.5,    0.5,    0.6,    0.8,    1.0,    4.6,   12.7,    8.2,   10.2,   18.3,   21.4,   21.3,   14.1,    0.9,   21.1,   21.0,   11.1,    8.0,    0.9,    1.2,    0.5,   13.4,    3.6,  999.0,    0.5,  999.0,  999.0,    0.4,    1.4,    1.1,  -15.8,  -29.9,  -13.7,  -26.8,  -24.9,  -42.7,  -32.2,  -26.9,  -25.8,  -28.9,  -23.3,  -22.0,  -20.7,  -19.5,  -18.1
1995/01/27 16:20,    0.6,    0.5,    1.1,   -0.4,    1.2,    0.9,    1.0,    1.3,    0.8,    0.6,    0.7,    0.7,    0.6,    0.6,    0.5,    0.8,    0.7,    0.5,    0.7,    0.2,    0.5,    0.6,    0.6,    0.5,    0.5,    0.5,    0.9,    0.7,    0.5,    0.6,    0.6,    0.6,    0.4,    0.5,  999.0,  999.0,  999.0,  999.0,  999.0,  999.0,  999.0,  999.0,  999.0,  -27.0,  -28.2,  -22.2,  -24.2,  -22.5,  -20.5,  -20.1,  -19.3,  -15.3,  -12.1,  -12.1,  -10.2,  -10.4,   -7.0,   -5.4
1995/01/27 16:30,    0.7,   18.1,    4.9,   10.1,   11.1,   11.2,    0.8,    0.5,    0.8,    1.0,   12.2,   14.5,    0.4,    1.0,   -1.0,   -4.1,    0.5,    3.0,    0.7,   -8.8,  -16.1,    6.0,    0.9,    0.2,   -6.7,   -6.8,   -4.6,    0.5,    0.8,  -13.4,  -20.7,    0.8,  999.0,    0.5,    0.5,  999.0,  -41.0,  -41.3,  999.0,  -41.6,  -41.7,  999.0,  999.0,  999.0,  -41.5,  -42.6,  -42.0,  -33.1,  -31.6,  -30.2,  -20.3,  -31.2,  -25.4,  -27.9,  -27.6,  -20.7,  -25.0,  -17.6
1995/01/27 16:40,    0.7,    0.2,    0.2,    0.2,    0.3,    0.6,  999.0,    0.3,    0.3,    0.3,    0.8,    0.8,    1.2,    0.7,    0.7,    0.7,    0.9,    0.8,    1.0,    0.7,    0.7,    0.8,    0.9,    0.5,    0.5,    0.8,    0.7,    0.9,    0.4,    0.7,  999.0,  999.0,  999.0,  999.0,  999.0,  999.0,  999.0,  999.0,  999.0,  999.0,  999.0,  999.0,  999.0,  999.0,  999.0,  999.0,  999.0,  -38.2,  -39.4,  -34.2,  -36.8,  -40.4,  -23.2,  -23.5,  -20.7,  -15.5,  -11.4,   -8.0
1995/01/27 16:50,    3.7,    2.5,    4.0,    7.8,    3.3,    5.2,    0.9,   -3.8,   -1.9,    0.8,    7.8,    2.1,   21.0,    8.6,    1.2,    0.7,   14.1,    0.6,    0.8,    2.4,    5.9,    0.7,  999.0,    0.7,    0.6,    0.8,    1.0,    0.6,    0.4,    0.7,  -20.8,  999.0,  -41.7,  999.0,  -41.5,  999.0,  999.0,  999.0,  999.0,  999.0,  999.0,  999.0,  999.0,  999.0,   41.9,   41.9,   42.2,    6.8,  -14.3,  -16.3,    3.9,    7.0,   -5.2,   -7.0,   -0.3,    1.7,    5.4,   -8.5
1995/01/27 17:00,    0.7,    0.3,    0.6,  999.0,   -0.4,    0.6,    0.7,    0.7,    1.3,    0.8,    1.1,    0.8,    0.5,    0.8,    0.8,    0.5,    0.4,    0.6,    0.8,    1.0,    0.5,    0.7,    0.8,    0.9,    0.7,    0.8,    0.7,    0.7,    0.4,  999.0,  999.0,    0.5,  999.0,  999.0,  999.0,  999.0,  999.0,  999.0,  999.0,  999.0,  999.0,  999.0,  999.0,  999.0,  999.0,  999.0,  999.0,  -31.3,  -25.6,  -24.1,  -19.3,  -19.1,  999.0,  -14.1,  -12.0,  -10.2,   -7.9,   -5.7
1995/01/27 17:10,    0.7,    3.0,  999.0,  999.0,    0.8,  999.0,   -1.3,    5.3,    0.4,    3.2,    0.4,    0.2,    0.6,    0.6,    0.6,    0.8,    0.8,   11.2,   11.0,    0.6,   -0.9,  -11.1,    0.7,   -0.9,    0.3,    0.8,   -0.0,   11.6,   -4.6,   -6.1,    0.9,    0.6,    8.7,   -0.3,  999.0,  -35.7,  999.0,  999.0,  -13.0,  999.0,  -21.3,  -11.1,  -20.0,  999.0,  999.0,  999.0,  999.0,  -25.7,  -29.8,  -28.4,  -19.7,  -18.5,  -17.0,  -15.5,  -25.8,  -12.9,   -7.2,   -4.7
1995/01/27 17:20,    5.4,    0.7,   -0.8,    9.4,    6.9,    0.9,   17.4,    6.5,    8.5,    0.8,    0.8,    0.7,  999.0,  999.0,    0.8,    0.6,    0.5,    1.0,  999.0,  -20.4,    0.9,   -9.7,  -20.4,    1.8,    6.4,   11.4,   31.5,    0.4,   21.5,    0.9,   10.9,  -14.3,    1.3,    0.8,  999.0,  999.0,  999.0,  999.0,  999.0,  999.0,  999.0,  999.0,  999.0,  999.0,  999.0,  999.0,  999.0,   -1.3,   -0.6,  999.0,  999.0,  -18.7,  -16.5,  -14.6,  999.0,  -11.0,  999.0,   -7.3
1995/01/27 17:30,    3.7,    4.4,    0.5,   11.3,    7.2,    1.5,    0.7,    5.9,    7.6,    5.4,    2.2,    4.4,   10.3,    5.0,    3.5,    1.8,    0.8,    0.7,    1.8,    3.0,    6.6,    5.9,   11.0,    7.7,  999.0,   11.1,    1.0,    2.0,    0.8,    7.4,   -6.6,    1.8,   17.4,  999.0,  999.0,  999.0,  999.0,   27.8,   42.1,  999.0,  999.0,   41.8,   41.4,   41.0,  999.0,   34.8,   31.3,   28.6,   25.0,  -18.4,  999.0,  -11.9,   -0.7,  -19.7,   -9.9,  -19.0,  -18.6,   -4.8
1995/01/27 17:40,    0.7,    0.4,    0.6,    4.1,    6.5,    1.6,    1.9,    0.4,    0.5,    0.5,    0.8,    0.9,  -20.4,    1.3,    0.6,    1.1,    1.1,    0.7,    0.8,    0.6,    0.9,    0.9,    0.6,    0.7,    0.6,    0.8,    1.1,   11.2,   21.1,    8.2,   13.7,   21.6,    0.5,    0.5,    0.6,    0.8,  999.0,  999.0,   34.1,  999.0,   42.7,   42.1,  999.0,   42.0,  999.0,  999.0,  999.0,   42.6,  999.0,   41.3,   40.5,    9.6,  -13.9,  -11.8,   -3.3,   -8.5,   -7.5,   -4.8
1995/01/27 17:50,   -3.3,   -3.2,   -9.6,  999.0,   -3.6,   -9.7,    4.1,  -11.1,   -7.7,    1.4,   -6.5,  -20.3,   -8.0,  -10.3,   -0.8,   -3.2,    3.1,    0.2,   -4.8,   11.1,    0.9,  -20.5,    0.4,   -9.0,   14.2,   21.0,   14.6,   14.1,    7.7,   20.4,    0.3,   13.0,    0.4,  999.0,    0.7,  999.0,    1.3,  999.0,  999.0,    0.7,    0.6,    0.2,    1.1,    1.4,    1.0,  999.0,  999.0,  -32.8,  -30.1,  -18.0,  -25.0,  -10.8,  -20.6,   -9.3,  -10.3,  -15.5,    0.5,  -20.8
1995/01/27 18:00,    3.8,  999.0,    7.7,    8.6,    4.1,    0.8,    2.3,    0.6,    1.3,    0.5,    0.8,    0.5,    0.8,  999.0,    1.4,   -0.0,    0.2,  999.0,    1.2,    0.9,    1.1,    1.0,    0.1,   -0.1,    0.7,    1.0,    0.7,    0.6,    0.7,    0.2,  999.0,    0.8,  999.0,  999.0,  999.0,  999.0,  -40.9,  999.0,  999.0,  -42.1,  999.0,  -41.2,  -30.8,  -41.6,  999.0,  999.0,  999.0,  -41.3,  999.0,  -41.8,  999.0,  -41.8,  -41.8,  -42.2,  -41.9,  -41.9,  -42.0,  -42.0
1995/01/27 18:10,    0.7,  999.0,  999.0,    0.5,    0.8,   -1.8,    1.0,    0.4,    0.8,    1.3,    1.0,    0.5,    0.7,    0.6,    0.2,    0.4,    0.2,    0.5,    0.9,    0.9,    0.8,    0.8,    1.1,    0.4,    0.2,    0.8,    0.6,    0.8,    0.5,  999.0,    0.5,  999.0,  999.0,  999.0,  999.0,  -13.4,  999.0,  -14.8,  999.0,  999.0,  999.0,  999.0,  999.0,  999.0,  999.0,  999.0,  999.0,  999.0,  -41.8,  999.0,  999.0,  999.0,  -41.8,  -41.3,  -41.4,  -41.3,  -41.8,  -42.0
1995/01/27 18:20,    0.7,  999.0,  999.0,    0.9,    0.7,    0.0,    0.5,    0.3,    0.3,    0.8,    0.6,    0.8,    0.9,    0.8,    0.8,    1.4,    1.0,    0.5,    1.0,    0.4,    1.0,    1.0,    0.9,    0.8,    0.6,    0.4,    0.6,    0.8,    0.8,    0.2,    1.1,  999.0,  999.0,  999.0,  999.0,  999.0,  999.0,  999.0,  999.0,  999.0,  -22.1,  999.0,  999.0,  999.0,  -24.3,  999.0,  999.0,  999.0,  999.0,  999.0,  999.0,  999.0,  999.0,  -42.5,  999.0,  -41.9,  -42.0,  -41.7
1995/01/27 18:30,    6.9,   13.6,   21.2,    1.3,   11.8,    9.7,    3.8,    6.6,    7.5,    4.1,    1.0,    6.0,    5.9,    6.1,    0.4,    0.8,    0.4,    0.7,    2.2,    2.2,    4.4,    0.9,    0.8,    0.5,   12.2,   20.8,   10.9,    1.2,    0.4,    0.3,   36.9,   24.4,   21.5,  999.0,  999.0,   27.1,  999.0,   -7.6,   34.1,   18.2,   -9.2,   -5.4,    0.9,   -8.8,  -18.6,  -41.7,   28.5,  999.0,  -20.5,  -27.0,   12.9,  -29.9,   36.6,  -41.5,  -41.9,  -13.7,  -10.7,  -20.3
1995/01/27 18:40,    2.6,  999.0,    6.2,   12.1,    5.6,    7.2,    9.6,    3.8,    6.2,   10.9,    9.0,    6.3,    5.7,    2.4,    6.4,  999.0,   17.7,   14.4,   14.2,   21.1,   19.0,   10.7,    9.8,    1.9,   11.0,    7.8,   41.3,   16.3,    0.8,   -6.5,  -41.4,   12.4,   10.8,   -3.1,  -41.8,  -17.3,   14.8,  -41.7,  -42.1,  -42.1,   -9.8,  999.0,  -42.6,   26.6,  -14.0,  -41.4,  999.0,   15.6,   41.7,  999.0,  999.0,  -41.9,  -21.7,  -34.6,  999.0,  -20.7,  -31.4,  -41.8
1995/01/27 18:50,   14.5,  999.0,  999.0,  999.0,  999.0,  999.0,   20.7,   18.6,   19.3,   -3.9,    6.8,   11.4,   21.3,   20.7,   20.9,  -21.0,   17.6,   22.1,    0.8,  999.0,    2.3,    2.7,   24.5,   25.0,   25.0,  999.0,   -2.2,  -15.6,    1.2,   16.5,   -9.6,  -14.2,  -40.7,  -42.1,  999.0,    0.4,  -20.3,  -41.2,  -20.3,  -41.7,  -42.3,  999.0,  999.0,  999.0,  -41.5,  999.0,  999.0,  -42.2,  999.0,  999.0,  -41.8,  999.0,  -41.8,  -21.3,  -21.4,  -41.5,  -21.1,  -21.4
1995/01/27 19:00,    1.0,  999.0,  999.0,  999.0,    9.7,   11.6,   15.4,   17.8,   19.2,   20.6,   21.0,   21.0,   20.8,   21.3,   20.4,   18.5,   18.8,   17.0,   14.4,   12.7,   10.9,    9.5,    8.0,    6.8,    4.9,    3.0,    1.6,    0.7,    0.6,   -0.1,    1.2,    1.3,    0.4,    0.4,  999.0,  999.0,    1.0,  999.0,  999.0,  999.0,    0.9,    0.4,    4.7,  999.0,  999.0,   28.2,   36.0,    0.1,   21.3,   -8.8,   -9.5,   12.8,   -9.0,  -11.2,   -9.1,    7.1,    7.8,   21.1
1995/01/27 19:10,    8.7,  999.0,  999.0,   16.4,  999.0,  999.0,  999.0,   17.5,   15.7,   21.6,   21.9,   21.7,  999.0,   20.6,   20.0,   18.8,   18.0,   -2.5,   -4.0,  -23.6,   -2.0,  999.0,   10.0,    9.0,  -41.8,  -17.8,  999.0,  999.0,  999.0,  999.0,  999.0,  999.0,  999.0,  999.0,  999.0,  999.0,  999.0,  999.0,  999.0,    1.0,    1.2,  999.0,  999.0,    1.2,  999.0,  999.0,  999.0,   12.5,  -20.1,    8.5,  -27.7,   41.4,    3.8,  -38.5,  -41.7,  -10.7,   -0.4,  -41.5
1995/01/27 19:20,    0.8,  999.0,  999.0,  -20.3,   24.1,    6.4,   26.0,    0.9,    9.8,   21.4,    7.9,   14.2,  -20.7,   21.1,   20.7,   21.9,   24.7,   28.2,   32.3,   29.2,   29.1,   24.4,   41.5,   35.7,   30.6,   31.6,  999.0,  999.0,   41.4,   41.9,   37.5,   38.7,  999.0,  999.0,   12.0,  -20.4,  999.0,   42.7,   42.6,  999.0,  999.0,  999.0,  999.0,   41.5,  999.0,  999.0,  999.0,    7.6,   12.7,   41.6,   20.6,   20.1,   20.2,   20.6,  999.0,    9.7,  -10.5,  -10.9
1995/01/27 19:30,  999.0,    2.0,    6.6,    4.7,  999.0,  999.0,   -1.9,    0.1,   12.0,   12.5,  999.0,  999.0,   13.5,    0.5,    5.6,   24.6,   24.9,  999.0,   27.4,   29.3,   30.2,  999.0,   33.9,  999.0,  999.0,  999.0,  999.0,  999.0,  999.0,  999.0,  999.0,  999.0,  999.0,  999.0,  999.0,  999.0,  999.0,  999.0,   11.6,  999.0,  999.0,  999.0,  999.0,  999.0,  999.0,  999.0,  999.0,  999.0,  999.0,  999.0,  999.0,  999.0,  999.0,  999.0,  999.0,  999.0,  -23.3,  -20.8
1995/01/27 19:40,  999.0,  999.0,  999.0,    0.8,    2.2,    0.9,    0.9,    1.7,    0.1,    0.7,   -1.0,  999.0,   -1.4,  999.0,  -15.0,  999.0,  999.0,  999.0,  999.0,  999.0,  999.0,  999.0,  999.0,  999.0,  999.0,  999.0,  999.0,  999.0,  999.0,  999.0,  999.0,  999.0,  999.0,  999.0,  999.0,  999.0,  999.0,  999.0,  999.0,  999.0,  999.0,  999.0,  999.0,  -39.4,  999.0,  -41.1,  999.0,  -21.2,  999.0,  -20.9,  -21.1,   -0.9,   -0.9,  -21.2,   -0.1,   -0.5,  -41.6,  999.0
1995/01/27 19:50,  999.0,  999.0,  999.0,  999.0,  999.0,  999.0,  999.0,   -0.4,    2.1,    3.4,    1.3,  999.0,  999.0,  999.0,  999.0,  999.0,  999.0,  999.0,  999.0,  999.0,  999.0,  999.0,  999.0,  999.0,  999.0,  999.0,  999.0,  999.0,  999.0,  999.0,  999.0,  999.0,  999.0,  999.0,  999.0,  999.0,  999.0,  -41.7,  999.0,  999.0,  -39.6,  -41.9,  -39.7,  -41.4,  -42.0,  -41.1,  -41.2,  -42.5,  -41.9,  -41.8,  -41.8,  -42.0,  -41.6,  -42.0,  -39.1,  999.0,  -28.1,  -23.7
1995/01/27 20:00,  999.0,  999.0,  999.0,    0.2,   -0.1,    3.7,    4.3,    2.3,   -0.5,  999.0,  999.0,   18.5,   17.3,    9.7,   10.4,  999.0,  999.0,   17.3,  999.0,    5.0,   13.4,  999.0,   10.8,    8.8,    8.1,  999.0,    5.0,  999.0,  999.0,    1.3,  999.0,  999.0,  999.0,    1.6,  999.0,    0.9,  999.0,    0.7,  999.0,  999.0,    0.6,  999.0,    1.1,  999.0,  999.0,    0.3,    1.1,    1.1,  999.0,  999.0,    0.5,    0.5,  999.0,  -20.6,    1.1,  999.0,    0.4,  999.0
1995/01/27 20:10,  999.0,  999.0,    0.1,    3.5,    3.9,    3.3,   -1.2,    0.6,  999.0,  999.0,  999.0,  999.0,  999.0,  999.0,   18.4,   17.8,  999.0,   15.8,  999.0,  999.0,  999.0,  999.0,  999.0,  999.0,  999.0,  999.0,  999.0,  999.0,  999.0,    5.1,    4.2,  -18.1,    1.6,  -19.8,  999.0,  999.0,    0.6,  999.0,  -42.0,    1.0,  -42.7,  999.0,  -42.0,  -21.3,  -42.5,   -2.7,  999.0,  -42.9,   -0.2,    0.4,  999.0,    1.8,  999.0,    3.3,  -39.9,  999.0,  -21.1,    0.4
1995/01/27 20:20,  999.0,    7.6,    0.1,   -0.4,    0.4,   -0.1,    1.2,    1.9,    0.2,   -1.2,   11.5,    3.0,  999.0,  999.0,  999.0,  999.0,  999.0,  999.0,  999.0,  999.0,  -15.9,  999.0,   -4.6,  999.0,  999.0,  999.0,  999.0,  -10.8,  -10.0,   -9.0,  999.0,  999.0,   -6.4,   29.1,  999.0,   -4.5,   -3.6,   -3.0,  999.0,  999.0,  999.0,   -0.8,  999.0,  999.0,  999.0,   -0.9,  999.0,  999.0,   -0.5,  999.0,   -0.4,   -0.6,    0.1,   -0.2,  999.0,  999.0,   -0.2,  999.0
1995/01/27 20:30,  999.0,  999.0,  999.0,    0.1,  999.0,  999.0,  999.0,    3.0,    0.0,  999.0,  999.0,  999.0,  999.0,  999.0,  999.0,  999.0,  999.0,  999.0,  999.0,  999.0,  999.0,  999.0,  999.0,  999.0,  999.0,  999.0,  999.0,  999.0,  999.0,  999.0,  999.0,  999.0,  999.0,  999.0,  999.0,  999.0,   -7.0,  -21.0,   -5.9,  999.0,  -15.4,   -2.5,  -20.2,   -2.3,   -0.6,  -21.7,  -21.3,  999.0,  -14.6,  -21.4,   -0.8,  -21.3,   -1.2,  999.0,  999.0,  -21.5,   -0.2,  -21.3
1995/01/27 20:40,  999.0,   -0.3,   -1.6,    0.1,   -1.9,  999.0,    2.3,    1.9,  999.0,  -22.4,  999.0,  999.0,  999.0,  999.0,  999.0,  999.0,  999.0,  -21.0,  -20.9,  -20.8,  -21.5,  999.0,  999.0,  999.0,  999.0,  -20.9,  -20.9,  999.0,   -6.9,  999.0,  -18.1,  999.0,  999.0,  -20.6,  -20.9,  999.0,  -20.7,  999.0,  -21.3,  999.0,  -17.3,  -21.3,  999.0,  999.0,  999.0,  999.0,  999.0,  999.0,  -20.3,  999.0,  999.0,  999.0,  -22.5,  999.0,  999.0,  999.0,  999.0,  999.0
1995/01/27 20:50,  999.0,  999.0,  999.0,    1.4,    2.2,    0.7,    1.3,   10.0,    9.2,   16.8,   21.5,   21.4,   21.3,  999.0,  999.0,  999.0,  999.0,  999.0,  999.0,  999.0,  999.0,  999.0,  999.0,  999.0,  999.0,  999.0,  999.0,  999.0,  999.0,  999.0,  999.0,  999.0,  999.0,  999.0,  999.0,  999.0,  999.0,  999.0,  999.0,  999.0,  999.0,  999.0,  999.0,  999.0,  999.0,  999.0,  999.0,  999.0,  999.0,  999.0,  999.0,  999.0,  999.0,  999.0,  999.0,  999.0,  999.0,  999.0
1995/01/27 21:00,  999.0,    0.3,   -1.0,    3.4,    1.2,   -0.0,    2.3,  999.0,  999.0,  999.0,   -3.2,   -4.3,  999.0,  999.0,  999.0,  999.0,  999.0,  999.0,  999.0,  999.0,  999.0,  999.0,  999.0,  999.0,  999.0,  999.0,  999.0,  999.0,  999.0,  999.0,  999.0,  999.0,  999.0,  999.0,   19.6,  999.0,  999.0,   19.3,  999.0,  999.0,   18.9,  999.0,  999.0,  999.0,   18.7,   19.4,  999.0,   19.2,  999.0,  999.0,  999.0,  999.0,   18.9,  999.0,  999.0,  999.0,  999.0,  999.0
1995/01/27 21:10,  999.0,    0.4,    1.1,  999.0,    2.5,  999.0,    6.0,  999.0,  999.0,  999.0,    1.2,  999.0,  999.0,  999.0,  999.0,  999.0,    1.0,  999.0,  999.0,  999.0,  999.0,  999.0,  999.0,  999.0,  999.0,  999.0,  999.0,  999.0,  999.0,  999.0,  999.0,  999.0,  999.0,  999.0,    0.8,  999.0,  999.0,  999.0,  999.0,  999.0,  999.0,  999.0,  999.0,  999.0,  999.0,  999.0,  999.0,  999.0,    0.7,  999.0,  999.0,  999.0,  999.0,  999.0,  999.0,  999.0,  999.0,  999.0
1995/01/27 21:20,  999.0,    3.0,   -0.5,   -1.9,  999.0,  999.0,    2.3,  999.0,   -1.6,   -1.2,  999.0,  999.0,  999.0,   14.7,  999.0,  999.0,  999.0,   22.2,   21.2,  999.0,  999.0,  999.0,  999.0,  999.0,    8.5,    8.2,    8.0,   13.4,   12.7,   11.9,   11.4,    0.7,    5.1,    8.1,    7.3,  999.0,    3.3,    2.7,  999.0,    1.8,    1.3,  999.0,  999.0,    0.8,    0.1,    1.3,    0.4,   -0.2,    0.6,  999.0,    0.5,  999.0,    0.2,  999.0,   -0.4,    0.3,    0.3,   -0.2
1995/01/27 21:30,  999.0,  999.0,    3.1,  999.0,  999.0,  999.0,    6.8,    4.7,  999.0,  999.0,  999.0,  999.0,  999.0,  999.0,   12.4,  999.0,  999.0,  999.0,  999.0,  999.0,  999.0,  999.0,  999.0,  999.0,  999.0,  999.0,  999.0,  999.0,  999.0,  999.0,  999.0,  999.0,  999.0,  999.0,  999.0,  999.0,  999.0,  999.0,  999.0,  999.0,  999.0,  999.0,  999.0,  999.0,  999.0,  999.0,  999.0,  999.0,  999.0,  999.0,  999.0,  999.0,  999.0,  999.0,  999.0,  999.0,  999.0,  999.0
1995/01/27 21:40,  999.0,    9.1,    0.1,    5.4,  999.0,   21.7,  999.0,   25.4,  999.0,   16.1,   10.5,  999.0,   21.2,  999.0,   20.2,  999.0,   21.9,   21.6,   17.6,  999.0,   15.0,   17.8,   21.7,   18.5,    7.8,  999.0,  999.0,   13.9,    3.7,    3.7,   12.1,  999.0,    7.0,    6.7,   12.0,  999.0,   11.0,    5.2,   21.4,   -0.2,    0.2,    4.9,    4.9,   -0.1,    7.1,    7.5,    6.3,    3.1,   12.9,    2.6,    0.3,   12.6,    3.8,   12.2,    4.2,    4.0,  999.0,    2.7
1995/01/27 21:50,  999.0,    6.0,   14.8,   15.3,   21.4,  999.0,  999.0,   21.0,   10.7,  999.0,   19.0,   21.6,  999.0,  999.0,  999.0,  999.0,  999.0,  999.0,   17.3,  999.0,  999.0,   16.1,  999.0,  999.0,   14.5,  999.0,  999.0,   13.7,  999.0,  999.0,   12.3,  999.0,  999.0,   10.9,   10.5,  999.0,  999.0,  999.0,    9.2,    8.0,  999.0,    6.8,  999.0,    6.6,    6.6,  999.0,    5.5,    5.0,    4.9,  999.0,    4.4,    3.3,  999.0,    3.3,    1.8,  999.0,    2.0,  999.0
1995/01/27 22:00,  999.0,   22.9,   21.3,   22.0,   21.7,   20.9,   20.9,   21.0,   21.6,  999.0,  999.0,   21.6,   22.2,   22.8,  999.0,   24.7,   26.8,   27.7,    6.8,   29.5,   32.6,  999.0,   33.0,  999.0,  999.0,  999.0,  999.0,  999.0,  999.0,  999.0,  999.0,  999.0,   -1.0,   -0.3,   -1.2,   -0.8,   -0.5,  999.0,   -1.0,   -0.7,   -0.6,   -0.9,    0.6,   -0.4,   -0.4,   -0.6,   -1.3,   -0.3,   -0.5,   -0.3,  999.0,   -0.3,   -0.6,  999.0,  999.0,   -0.9,   -0.4,   -0.5
1995/01/27 22:10,  999.0,  999.0,   21.7,   22.5,   22.5,   21.8,  999.0,  999.0,   21.7,  999.0,  999.0,  999.0,  999.0,  999.0,  999.0,  999.0,  999.0,  999.0,  999.0,  999.0,  999.0,  999.0,  999.0,  999.0,  999.0,  999.0,  999.0,  999.0,  999.0,  999.0,  999.0,  999.0,  999.0,  999.0,  999.0,  999.0,  999.0,  999.0,  999.0,  999.0,  -35.9,  999.0,  999.0,  999.0,  999.0,  999.0,  999.0,  -38.8,  999.0,  999.0,  999.0,  999.0,  -41.9,  999.0,  999.0,  -41.8,  -41.0,  999.0
1995/01/27 22:20,  999.0,   19.4,    0.9,   15.2,   20.7,   21.1,  999.0,   21.4,   20.5,   21.2,   21.1,   20.9,  999.0,  999.0,  999.0,  999.0,  999.0,  999.0,  999.0,  999.0,  999.0,  999.0,  999.0,  999.0,  999.0,  999.0,  999.0,  999.0,  999.0,  999.0,  999.0,  999.0,  999.0,  999.0,  999.0,  999.0,  999.0,  -42.6,  999.0,  999.0,   -9.6,  999.0,  -24.1,   -4.6,  999.0,  -41.7,  999.0,   -1.1,  999.0,  -20.9,  -21.5,  999.0,   -0.8,   -1.5,  999.0,   -1.7,   -1.2,   -1.3
1995/01/27 22:30,  999.0,  999.0,    0.3,  999.0,  999.0,  999.0,  999.0,  999.0,  999.0,   11.0,    1.6,  999.0,  999.0,  999.0,  999.0,  999.0,  999.0,  999.0,  999.0,  999.0,  999.0,  999.0,  999.0,  999.0,  999.0,  999.0,  999.0,  999.0,  999.0,  999.0,  999.0,  999.0,  999.0,  999.0,  999.0,  999.0,  999.0,  999.0,  999.0,  999.0,  999.0,  999.0,  999.0,  999.0,  999.0,  999.0,  999.0,  999.0,  999.0,  999.0,  999.0,  999.0,  999.0,  999.0,  999.0,  999.0,  999.0,  999.0
1995/01/27 22:40,  999.0,  999.0,  -21.7,  -21.1,  -24.2,  999.0,  -20.9,  999.0,  -13.2,  -20.7,  -22.0,  -21.1,  999.0,  999.0,  999.0,  999.0,  999.0,  -22.4,  999.0,  999.0,  999.0,  999.0,  999.0,  999.0,  999.0,  999.0,  999.0,  999.0,  999.0,  999.0,  999.0,  999.0,  999.0,  999.0,  999.0,  999.0,  999.0,  999.0,  999.0,  999.0,  999.0,  999.0,  999.0,  999.0,  999.0,  999.0,  999.0,  999.0,  999.0,  999.0,  999.0,  999.0,  999.0,  999.0,  999.0,  999.0,  999.0,  999.0
1995/01/27 22:50,  999.0,    1.5,  999.0,  999.0,  999.0,  -20.7,  -21.8,  -21.9,  -20.6,  -13.8,  999.0,  -21.6,  999.0,  999.0,  999.0,  999.0,  999.0,  999.0,  999.0,  999.0,  999.0,  999.0,  999.0,  999.0,  999.0,  999.0,  999.0,  999.0,  999.0,  999.0,  999.0,  999.0,  999.0,  999.0,  999.0,  999.0,  999.0,  999.0,  999.0,  999.0,  999.0,  999.0,  999.0,  999.0,  999.0,  999.0,  999.0,  999.0,  999.0,  999.0,  999.0,  999.0,  999.0,  999.0,  999.0,  999.0,  999.0,  999.0
1995/01/27 23:00,  999.0,  -20.7,  -20.1,   21.2,  -13.8,  -21.1,   -6.5,  -21.5,    0.2,  -21.4,  -21.7,  999.0,  999.0,  999.0,  -19.7,  999.0,  999.0,  999.0,  999.0,  999.0,  -16.3,  -16.3,  999.0,  999.0,  -14.8,  -14.1,  999.0,  999.0,  -12.4,  999.0,  999.0,  999.0,  999.0,  999.0,   -9.2,  999.0,  999.0,  999.0,   -6.9,   -6.7,   -5.9,   -5.9,  999.0,  999.0,  999.0,   -2.9,  999.0,   -2.1,   -2.5,   -0.5,  999.0,   -1.4,  999.0,  999.0,  999.0,   -0.5,   -0.0,   -0.7
1995/01/27 23:10,  999.0,    6.0,  999.0,  999.0,  999.0,  999.0,  -21.8,  999.0,  -21.3,   10.6,  -21.1,  -21.7,  999.0,  999.0,  -19.8,  999.0,  -18.5,  999.0,  999.0,   25.7,    4.3,  -16.0,   27.8,   27.5,  -13.5,  999.0,    9.2,  999.0,  999.0,  999.0,   31.9,   -7.9,  999.0,  999.0,   33.3,   -4.9,   35.3,   -6.6,   -2.6,   36.8,  999.0,   -4.2,   17.6,  999.0,   -2.9,  999.0,   40.5,   41.3,   -0.7,   41.4,   41.7,  999.0,  999.0,  999.0,  999.0,  999.0,   -0.6,  999.0
1995/01/27 23:20,  999.0,  -20.5,  999.0,  -21.8,  -20.6,   -7.1,   -6.9,  -20.9,  999.0,  -21.5,  999.0,   20.9,   -0.2,  999.0,   21.9,   21.4,   21.0,  999.0,  999.0,   21.3,  999.0,   21.3,  999.0,   20.7,  999.0,   21.2,  999.0,   20.9,  999.0,  999.0,   21.3,  999.0,  999.0,   22.1,  999.0,   21.6,   21.9,   21.9,  999.0,   21.5,   21.1,   21.6,   21.4,   21.8,   21.5,  999.0,   21.3,  999.0,   22.1,  999.0,  999.0,  999.0,  999.0,  999.0,  999.0,  999.0,  999.0,  999.0
1995/01/27 23:30,  999.0,  999.0,  -22.3,  -21.2,  999.0,  -21.5,  999.0,  -23.2,  999.0,  999.0,  999.0,  999.0,  999.0,  999.0,  999.0,  999.0,  999.0,  999.0,  999.0,  999.0,  999.0,  999.0,  999.0,  999.0,  999.0,   11.5,    9.3,    8.5,    4.7,  999.0,    5.5,    5.2,    3.1,  999.0,    2.5,    2.4,    0.8,    1.2,    0.8,    1.0,    0.4,   -0.1,    1.1,    0.6,    0.8,    1.0,    0.1,    0.8,    0.6,    0.4,    0.8,    1.3,    1.3,    0.8,  999.0,    0.9,    0.4,  999.0
1995/01/27 23:40,  999.0,   -4.8,   12.3,   21.9,  -20.9,  -20.7,  999.0,  999.0,   21.0,  999.0,   21.1,   21.3,  999.0,  999.0,  999.0,  999.0,  999.0,  999.0,  999.0,  999.0,  999.0,  999.0,  999.0,  999.0,  999.0,  999.0,  999.0,  999.0,  999.0,  999.0,  999.0,  999.0,  999.0,  999.0,  999.0,  999.0,  999.0,    4.5,  999.0,  999.0,  999.0,  999.0,  999.0,    1.2,  999.0,  999.0,  999.0,  999.0,  999.0,  999.0,  999.0,  999.0,  999.0,  999.0,  999.0,  999.0,  999.0,  999.0
1995/01/27 23:50,  999.0,  999.0,  -21.0,  -20.2,  999.0,  999.0,  999.0,  999.0,  999.0,  999.0,  999.0,  -21.4,  999.0,  999.0,  999.0,  999.0,  999.0,  999.0,  999.0,  999.0,  999.0,  999.0,  999.0,  999.0,  999.0,  999.0,  999.0,  999.0,  999.0,  999.0,  999.0,  999.0,  999.0,  999.0,  999.0,  999.0,  999.0,  999.0,  999.0,  999.0,  999.0,  999.0,  999.0,  999.0,  999.0,  999.0,  999.0,  999.0,  999.0,  999.0,  999.0,  999.0,  999.0,  999.0,  999.0,  999.0,  999.0,  999.0
